Laatste waarneming: 03:49
Temperatuur:16,4°C
Dauwpunt:14,8°C
Rel. vocht:90,0%
Natte-bol:16,3°C
Wind (gem. 10 min.):1,7 m/s
Wind (max. 10 min.):1.7E+308 m/s
Windrichting:193°
Neerslagsom:1,6 mm
Neerslagintensiteit:0,0 mm/u
Luchtdruk:1007,9 hPa
Straling:0,0 W/m2
 
Maximumtemp.:17,8°C (00:19)
Minimumtemp.:16,4°C (03:46)
Hoogste windstoot:- m/s (00:25)


Bekijk de verwachting.

Bekijk de grafieken.
Bekijk het weekoverzicht.
Bekijk het maandoverzicht.
Bekijk het jaaroverzicht.
Dagtabel
Tijd Temp. Dauwp. Natte-bol Rel. Hum. Windsnelh. Windricht. Windstoot Neerslag Straling Luchtdruk
 
03:49 16,4 14,8 16,3 90,0 1,7 193 - 1,6 0 1.007,9
03:48 16,4 14,8 16,3 90,0 1,5 165 - 1,6 0 1.007,9
03:47 16,4 14,8 16,3 90,0 1,4 182 - 1,6 0 1.007,9
03:46 16,4 14,8 16,3 90,0 1,4 168 - 1,6 0 1.007,9
03:45 16,5 14,8 16,3 90,0 1,4 134 - 1,6 0 1.007,9
03:44 16,5 14,8 16,3 90,0 1,3 198 - 1,6 0 1.007,9
03:43 16,5 14,8 16,4 90,0 1,6 195 - 1,6 0 1.007,9
03:42 16,5 14,8 16,4 90,0 1,6 176 - 1,6 0 1.007,9
03:41 16,5 14,8 16,3 90,0 1,5 212 - 1,6 0 1.007,8
03:40 16,5 14,8 16,4 90,0 1,3 211 - 1,6 0 1.007,8
03:39 16,5 14,8 16,4 90,0 1,3 189 - 1,6 0 1.007,8
03:38 16,5 14,8 16,4 90,0 1,3 197 - 1,6 0 1.007,7
03:37 16,5 14,9 16,4 90,0 1,2 162 - 1,6 0 1.007,7
03:36 16,5 14,9 16,4 90,0 1,0 209 - 1,6 0 1.007,7
03:35 16,5 14,9 16,4 90,0 1,0 192 - 1,6 0 1.007,7
03:34 16,6 14,9 16,4 90,0 0,9 213 - 1,6 0 1.007,7
03:33 16,5 14,9 16,4 90,0 0,8 235 - 1,6 0 1.007,7
03:32 16,6 14,9 16,4 90,0 0,9 182 - 1,6 0 1.007,7
03:31 16,6 14,9 16,4 90,0 0,8 162 - 1,6 0 1.007,7
03:30 16,6 14,9 16,4 90,0 0,8 253 - 1,6 0 1.007,6
03:29 16,6 14,9 16,4 90,0 0,9 187 - 1,6 0 1.007,6
03:28 16,6 14,9 16,4 90,0 1,0 202 - 1,6 0 1.007,6
03:27 16,6 14,9 16,4 90,0 1,0 158 - 1,6 0 1.007,7
03:26 16,6 14,9 16,5 90,0 1,0 197 - 1,6 0 1.007,7
03:25 16,6 14,9 16,5 90,0 1,1 244 - 1,6 0 1.007,7
03:24 16,6 14,9 16,5 90,0 1,2 168 - 1,6 0 1.007,7
03:23 16,6 14,9 16,5 90,0 1,5 225 - 1,6 0 1.007,7
03:22 16,6 15,0 16,5 90,0 1,4 190 - 1,6 0 1.007,7
03:21 16,6 15,0 16,5 90,0 1,3 183 - 1,6 0 1.007,7
03:20 16,6 15,0 16,5 90,0 1,2 184 - 1,6 0 1.007,7
03:19 16,7 15,0 16,5 90,0 1,1 188 - 1,6 0 1.007,6
03:18 16,6 15,0 16,5 90,2 0,9 179 - 1,6 0 1.007,6
03:17 16,7 15,1 16,6 90,6 0,6 202 - 1,6 0 1.007,6
03:16 16,7 15,1 16,6 90,5 0,6 129 - 1,6 0 1.007,6
03:15 16,7 15,0 16,6 90,3 0,8 103 - 1,6 0 1.007,6
03:14 16,7 15,0 16,5 90,0 0,9 161 - 1,6 0 1.007,5
03:13 16,7 15,0 16,5 90,0 1,0 161 - 1,6 0 1.007,5
03:12 16,7 15,0 16,5 90,0 1,1 109 - 1,6 0 1.007,5
03:11 16,7 15,0 16,5 90,0 1,2 89 - 1,6 0 1.007,5
03:10 16,7 15,0 16,5 90,0 1,1 132 - 1,6 0 1.007,6
03:09 16,7 15,0 16,5 90,0 0,8 88 - 1,6 0 1.007,5
03:08 16,7 15,0 16,5 90,0 0,8 205 - 1,6 0 1.007,5
03:07 16,7 15,0 16,5 90,0 1,0 137 - 1,6 0 1.007,6
03:06 16,7 15,0 16,5 90,0 1,0 127 - 1,6 0 1.007,6
03:05 16,7 15,0 16,5 90,0 0,9 167 - 1,6 0 1.007,6
03:04 16,7 15,0 16,6 90,0 0,8 101 - 1,6 0 1.007,6
03:02 16,7 15,1 16,6 90,0 0,8 42 - 1,6 0 1.007,7
03:01 16,7 15,1 16,6 90,0 0,9 136 - 1,6 0 1.007,7
03:00 16,7 15,1 16,6 90,0 1,0 99 - 1,6 0 1.007,8
 
02:59 16,7 15,0 16,6 90,0 0,9 111 - 1,6 0 1.007,8
02:58 16,7 15,1 16,6 90,0 0,8 159 - 1,6 0 1.007,8
02:57 16,7 15,1 16,6 90,0 0,9 158 - 1,6 0 1.007,9
02:56 16,7 15,1 16,6 90,0 0,6 169 - 1,6 0 1.007,9
02:55 16,7 15,1 16,6 90,0 0,7 66 - 1,6 0 1.007,9
02:54 16,7 15,1 16,6 90,0 0,9 192 - 1,6 0 1.007,9
02:53 16,7 15,1 16,6 90,0 1,2 168 - 1,6 0 1.007,9
02:52 16,7 15,1 16,6 90,0 1,1 138 - 1,6 0 1.008,0
02:51 16,7 15,1 16,6 90,0 1,0 184 - 1,6 0 1.008,0
02:50 16,7 15,1 16,6 90,0 0,7 136 - 1,6 0 1.008,0
02:49 16,7 15,1 16,6 90,0 0,7 80 - 1,6 0 1.008,0
02:48 16,7 15,1 16,6 90,0 0,7 154 - 1,6 0 1.008,0
02:47 16,8 15,1 16,6 90,0 0,9 116 - 1,6 0 1.008,0
02:46 16,7 15,1 16,6 90,0 0,9 123 - 1,6 0 1.008,0
02:45 16,7 15,1 16,6 90,0 0,6 155 - 1,6 0 1.008,0
02:44 16,7 15,1 16,6 90,0 0,6 245 - 1,6 0 1.008,0
02:43 16,8 15,1 16,6 90,0 0,5 138 - 1,6 0 1.008,1
02:42 16,8 15,1 16,6 90,0 0,8 109 - 1,6 0 1.008,1
02:41 16,7 15,1 16,6 90,0 0,7 101 - 1,6 0 1.008,2
02:40 16,8 15,1 16,6 90,0 0,7 199 - 1,6 0 1.008,2
02:39 16,8 15,1 16,6 90,0 0,9 154 - 1,6 0 1.008,1
02:38 16,8 15,1 16,6 90,0 1,1 167 - 1,6 0 1.008,2
02:37 16,8 15,1 16,6 90,0 1,1 175 - 1,6 0 1.008,2
02:36 16,7 15,1 16,6 90,0 0,7 186 - 1,6 0 1.008,2
02:35 16,8 15,1 16,6 90,0 0,6 98 - 1,6 0 1.008,1
02:34 16,8 15,1 16,6 90,0 0,8 186 - 1,6 0 1.008,2
02:33 16,8 15,1 16,6 90,0 1,0 202 - 1,6 0 1.008,2
02:32 16,8 15,1 16,6 90,0 0,9 190 - 1,6 0 1.008,1
02:31 16,8 15,1 16,6 90,0 0,9 253 - 1,6 0 1.008,1
02:30 16,7 15,1 16,6 90,0 0,6 188 - 1,6 0 1.008,1
02:29 16,8 15,1 16,6 90,0 0,8 120 - 1,6 0 1.008,2
02:28 16,8 15,1 16,6 90,0 1,0 180 - 1,6 0 1.008,2
02:27 16,8 15,1 16,6 90,0 1,1 170 - 1,6 0 1.008,2
02:26 16,8 15,1 16,6 90,0 1,0 186 - 1,6 0 1.008,2
02:25 16,8 15,1 16,6 90,0 0,6 120 - 1,6 0 1.008,1
02:24 16,8 15,1 16,6 90,0 0,9 43 - 1,6 0 1.008,2
02:23 16,8 15,1 16,6 90,0 1,1 136 - 1,6 0 1.008,1
02:22 16,8 15,1 16,6 90,0 1,3 130 - 1,6 0 1.008,1
02:21 16,8 15,1 16,6 90,0 1,1 151 - 1,6 0 1.008,2
02:20 16,8 15,1 16,7 90,0 1,1 131 - 1,6 0 1.008,2
02:19 16,8 15,1 16,7 90,0 1,1 169 - 1,6 0 1.008,2
02:18 16,8 15,1 16,7 90,0 1,0 106 - 1,6 0 1.008,1
02:17 16,8 15,1 16,7 90,0 0,9 163 - 1,6 0 1.008,1
02:16 16,8 15,2 16,7 90,0 0,8 119 - 1,6 0 1.008,1
02:15 16,8 15,2 16,7 90,0 0,9 70 - 1,6 0 1.008,1
02:14 16,8 15,2 16,7 90,0 0,9 106 - 1,6 0 1.008,2
02:13 16,8 15,2 16,7 90,0 0,7 118 - 1,6 0 1.008,2
02:12 16,8 15,2 16,7 90,0 0,7 206 - 1,6 0 1.008,2
02:11 16,9 15,2 16,7 90,0 0,7 113 - 1,6 0 1.008,1
02:10 16,9 15,2 16,7 90,0 0,9 205 - 1,6 0 1.008,2
02:09 16,9 15,2 16,7 90,0 0,8 163 - 1,6 0 1.008,2
02:08 16,9 15,2 16,8 90,0 0,9 65 - 1,6 0 1.008,2
02:07 16,9 15,2 16,8 90,0 0,5 160 - 1,6 0 1.008,2
02:06 16,9 15,2 16,8 90,0 0,3 246 - 1,6 0 1.008,2
02:05 16,9 15,2 16,8 90,0 0,6 66 - 1,6 0 1.008,1
02:04 16,9 15,3 16,8 90,0 1,1 95 - 1,6 0 1.008,1
02:03 16,9 15,3 16,8 90,0 1,1 130 - 1,6 0 1.008,2
02:02 16,9 15,3 16,8 90,0 1,0 149 - 1,6 0 1.008,2
02:01 17,0 15,3 16,8 90,0 1,1 99 - 1,6 0 1.008,2
02:00 17,0 15,3 16,9 90,0 1,2 126 - 1,6 0 1.008,1
 
01:59 17,0 15,3 16,9 90,0 1,1 70 - 1,6 0 1.008,1
01:58 17,0 15,3 16,9 90,0 1,0 115 - 1,6 0 1.008,2
01:57 17,0 15,4 16,9 90,0 1,1 105 - 1,6 0 1.008,1
01:56 17,0 15,4 16,9 90,0 1,1 114 - 1,6 0 1.008,2
01:55 17,1 15,4 16,9 90,0 1,3 135 - 1,6 0 1.008,2
01:54 17,1 15,4 17,0 90,0 1,2 88 - 1,6 0 1.008,2
01:53 17,1 15,4 17,0 90,0 1,0 156 - 1,6 0 1.008,2
01:52 17,1 15,4 17,0 90,0 1,0 104 - 1,6 0 1.008,2
01:51 17,1 15,4 17,0 90,0 1,0 92 - 1,6 0 1.008,2
01:50 17,1 15,5 17,0 89,9 0,9 57 - 1,6 0 1.008,2
01:49 17,2 15,3 16,9 89,0 0,9 136 - 1,6 0 1.008,3
01:48 17,2 15,4 17,0 89,0 1,2 185 - 1,6 0 1.008,3
01:47 17,2 15,4 17,0 89,0 1,2 135 - 1,6 0 1.008,3
01:46 17,2 15,4 17,0 89,0 1,3 114 - 1,6 0 1.008,3
01:45 17,3 15,4 17,0 89,0 0,9 93 - 1,6 0 1.008,3
01:44 17,3 15,4 17,0 89,0 0,6 228 - 1,6 0 1.008,4
01:43 17,3 15,5 17,1 89,0 0,8 107 - 1,6 0 1.008,4
01:42 17,3 15,6 17,2 89,5 1,1 184 - 1,6 0 1.008,4
01:41 17,3 15,7 17,2 90,0 1,2 122 - 1,6 0 1.008,4
01:40 17,4 15,7 17,3 90,0 1,2 107 - 1,6 0 1.008,4
01:39 17,4 15,7 17,3 90,0 1,0 113 - 1,6 0 1.008,4
01:38 17,4 15,7 17,3 90,0 0,8 70 - 1,6 0 1.008,3
01:37 17,4 15,8 17,3 90,0 0,8 132 - 1,6 0 1.008,4
01:36 17,4 15,8 17,4 90,0 0,9 127 - 1,6 0 1.008,3
01:35 17,4 15,8 17,4 90,0 0,9 154 - 1,6 0 1.008,4
01:34 17,5 15,8 17,4 90,0 0,7 97 - 1,6 0 1.008,4
01:33 17,5 15,8 17,4 90,0 0,7 134 - 1,6 0 1.008,4
01:32 17,5 15,8 17,4 90,0 0,7 161 - 1,6 0 1.008,4
01:31 17,5 15,8 17,4 89,6 0,8 99 - 1,6 0 1.008,4
01:30 17,5 15,7 17,3 89,0 0,8 105 - 1,6 0 1.008,4
01:29 17,5 15,7 17,3 89,0 0,7 130 - 1,6 0 1.008,4
01:28 17,6 15,7 17,3 89,0 0,6 101 - 1,6 0 1.008,4
01:27 17,6 15,7 17,3 89,0 0,8 152 - 1,6 0 1.008,4
01:26 17,6 15,7 17,3 89,0 0,9 93 - 1,6 0 1.008,4
01:25 17,6 15,7 17,3 89,0 1,0 93 - 1,6 0 1.008,4
01:24 17,6 15,7 17,3 89,0 0,9 103 - 1,6 0 1.008,5
01:23 17,6 15,7 17,3 89,0 0,9 95 - 1,6 0 1.008,5
01:22 17,6 15,7 17,4 89,0 0,6 101 - 1,6 0 1.008,5
01:21 17,6 15,7 17,4 89,0 0,3 141 - 1,6 0 1.008,5
01:20 17,6 15,8 17,4 89,0 0,2 141 - 1,6 0 1.008,5
01:19 17,6 15,7 17,4 89,0 0,2 141 - 1,6 0 1.008,4
01:18 17,6 15,7 17,4 89,0 0,1 141 - 1,6 0 1.008,4
01:17 17,6 15,8 17,4 89,0 0,2 141 - 1,6 0 1.008,5
01:16 17,6 15,8 17,4 89,0 0,3 141 - 1,6 0 1.008,5
01:15 17,6 15,8 17,4 89,0 0,2 141 - 1,6 0 1.008,5
01:14 17,6 15,8 17,4 89,0 0,1 141 - 1,6 0 1.008,5
01:13 17,6 15,8 17,4 89,0 0,0 174 - 1,6 0 1.008,5
01:12 17,6 15,8 17,4 89,0 0,1 174 - 1,6 0 1.008,5
01:11 17,6 15,8 17,4 89,0 0,2 174 - 1,6 0 1.008,5
01:10 17,6 15,8 17,4 89,0 0,2 174 - 1,6 0 1.008,5
01:09 17,7 15,8 17,4 89,0 0,1 174 - 1,6 0 1.008,5
01:08 17,6 15,8 17,4 89,0 0,2 174 - 1,6 0 1.008,6
01:07 17,7 15,8 17,5 89,0 0,4 174 - 1,6 0 1.008,6
01:06 17,7 15,8 17,5 89,0 0,7 179 - 1,6 0 1.008,6
01:05 17,7 15,8 17,4 89,0 1,0 176 - 1,6 0 1.008,6
01:04 17,7 15,8 17,5 89,0 1,0 175 - 1,6 0 1.008,6
01:03 17,7 15,8 17,5 89,0 1,0 175 - 1,6 0 1.008,6
01:02 17,7 15,8 17,5 89,0 1,0 175 - 1,6 0 1.008,6
01:01 17,7 15,8 17,4 89,0 1,1 175 - 1,6 0 1.008,6
01:00 17,7 15,8 17,5 89,0 1,1 155 - 1,6 0 1.008,6
 
00:59 17,7 15,8 17,4 89,0 1,0 155 - 1,6 0 1.008,6
00:58 17,6 15,8 17,4 89,0 0,7 153 - 1,6 0 1.008,6
00:57 17,6 15,8 17,4 89,0 0,3 153 - 1,6 0 1.008,6
00:56 17,6 15,8 17,4 89,0 0,2 153 - 1,6 0 1.008,6
00:55 17,6 15,8 17,4 89,0 0,1 153 - 1,6 0 1.008,6
00:54 17,7 15,8 17,4 89,0 0,1 153 - 1,6 0 1.008,6
00:53 17,7 15,8 17,5 89,0 0,3 153 - 1,6 0 1.008,6
00:52 17,7 15,8 17,5 89,0 0,4 153 - 1,6 0 1.008,6
00:51 17,7 15,8 17,5 89,0 0,3 124 - 1,6 0 1.008,7
00:50 17,7 15,8 17,5 89,0 0,2 190 - 1,6 0 1.008,7
00:49 17,7 15,8 17,5 89,0 0,4 190 - 1,6 0 1.008,7
00:48 17,7 15,8 17,5 89,0 1,0 192 - 1,6 0 1.008,8
00:47 17,7 15,8 17,5 89,0 1,4 174 - 1,6 0 1.008,8
00:46 17,7 15,8 17,5 89,0 1,7 197 - 1,6 0 1.008,8
00:45 17,7 15,8 17,5 89,0 1,8 170 - 1,6 0 1.008,8
00:44 17,7 15,9 17,5 89,0 1,9 190 - 1,6 0 1.008,8
00:43 17,7 15,9 17,5 89,0 2,0 199 - 1,6 0 1.008,8
00:42 17,7 15,9 17,5 89,0 2,2 208 - 1,6 0 1.008,7
00:41 17,7 15,9 17,5 89,0 2,4 217 - 1,6 0 1.008,8
00:40 17,7 15,9 17,5 89,0 2,4 211 - 1,6 0 1.008,8
00:39 17,7 15,9 17,5 89,0 2,2 211 - 1,6 0 1.008,8
00:38 17,7 15,9 17,5 89,0 2,1 192 - 1,6 0 1.008,9
00:37 17,7 15,9 17,5 89,0 2,2 217 - 1,6 0 1.008,9
00:36 17,7 15,9 17,5 89,0 2,5 222 - 1,6 0 1.008,9
00:35 17,7 15,9 17,5 89,0 2,8 221 - 1,6 0 1.008,9
00:34 17,7 15,9 17,5 89,0 2,8 236 - 1,6 0 1.009,0
00:33 17,7 15,8 17,5 88,7 2,6 204 - 1,6 0 1.009,0
00:32 17,7 15,7 17,4 88,0 2,5 197 - 1,6 0 1.009,0
00:31 17,7 15,7 17,4 88,0 2,7 230 - 1,6 0 1.009,0
00:30 17,7 15,7 17,4 88,0 3,2 217 - 1,6 0 1.009,0
00:29 17,8 15,8 17,4 88,0 3,6 223 - 1,6 0 1.009,0
00:28 17,8 15,8 17,4 88,0 3,8 209 - 1,6 0 1.009,0
00:27 17,8 15,8 17,4 88,0 4,1 243 - 1,6 0 1.009,0
00:26 17,8 15,7 17,4 88,0 4,7 244 - 1,6 0 1.009,0
00:25 17,8 15,7 17,4 87,4 4,4 230 - 1,6 0 1.009,0
00:24 17,8 15,6 17,3 87,0 3,7 238 - 1,6 0 1.009,0
00:23 17,8 15,6 17,4 87,0 2,9 237 - 1,6 0 1.009,0
00:22 17,8 15,6 17,4 87,0 2,4 212 - 1,4 0 1.009,0
00:21 17,8 15,6 17,4 87,0 1,9 226 - 1,4 0 1.009,0
00:20 17,8 15,6 17,4 87,0 1,8 205 - 1,4 0 1.009,0
00:19 17,8 15,6 17,4 87,0 2,2 190 - 0,6 0 1.009,1
00:18 17,8 15,6 17,4 87,0 2,5 209 - 0,4 0 1.009,1
00:17 17,8 15,6 17,3 87,0 2,5 207 - 0,2 0 1.009,0
00:16 17,8 15,6 17,4 87,0 2,0 216 - 0,0 0 1.009,0
00:15 17,8 15,6 17,3 87,0 1,4 218 - 0,0 0 1.009,0
00:14 17,8 15,6 17,3 87,0 0,7 205 - 0,0 0 1.009,0
00:13 17,8 15,6 17,3 87,0 0,6 157 - 0,0 0 1.008,9
00:12 17,8 15,6 17,3 87,0 0,6 158 - 0,0 0 1.008,9
00:11 17,8 15,6 17,3 87,0 0,6 151 - 0,0 0 1.008,9
00:10 17,8 15,6 17,3 87,0 0,6 152 - 0,0 0 1.008,9
00:09 17,8 15,6 17,3 87,0 0,6 150 - 0,0 0 1.008,9
00:08 17,8 15,6 17,4 87,0 0,5 118 - 0,0 0 1.008,9
00:07 17,8 15,6 17,4 87,0 0,7 55 - 0,0 0 1.008,9
00:06 17,8 15,6 17,4 87,0 1,0 71 - 0,0 0 1.008,9
00:05 17,8 15,6 17,4 87,0 1,2 75 - 0,0 0 1.009,0
00:04 17,8 15,6 17,4 87,0 1,3 90 - 0,0 0 1.009,0
00:03 17,8 15,6 17,4 87,0 1,3 66 - 0,0 0 1.008,9
00:02 17,8 15,6 17,4 87,0 0,9 94 - 0,0 0 1.009,0
00:01 17,8 15,6 17,4 87,0 0,9 168 - 0,0 0 1.009,0
00:00 17,8 15,6 17,4 87,0 0,9 171 - 12,8 0 1.009,0
 
23:59 17,8 15,6 17,4 87,0 0,8 110 - 12,8 0 1.009,0
23:58 17,8 15,6 17,4 87,0 1,0 73 - 12,8 0 1.009,0
23:57 17,8 15,6 17,4 87,0 1,1 82 - 12,8 0 1.009,0
23:56 17,8 15,6 17,4 87,0 1,0 99 - 12,8 0 1.009,0
23:55 17,8 15,6 17,4 87,0 0,8 67 - 12,8 0 1.009,0
23:54 17,8 15,6 17,4 87,0 0,6 171 - 12,8 0 1.009,0
23:53 17,8 15,6 17,4 87,0 0,6 85 - 12,8 0 1.009,0
23:52 17,8 15,6 17,4 87,0 0,6 74 - 12,8 0 1.009,0
23:51 17,8 15,6 17,4 87,0 0,7 174 - 12,8 0 1.009,0
23:50 17,8 15,6 17,4 87,0 0,8 120 - 12,8 0 1.009,0
23:49 17,8 15,6 17,4 87,0 0,8 103 - 12,8 0 1.009,0
23:48 17,8 15,6 17,4 87,0 0,3 147 - 12,8 0 1.009,0
23:47 17,8 15,6 17,4 87,0 0,1 345 - 12,8 0 1.009,1
23:46 17,8 15,6 17,4 87,0 0,2 130 - 12,8 0 1.009,1
23:45 17,8 15,6 17,4 87,0 0,6 124 - 12,8 0 1.009,1
23:44 17,9 15,7 17,4 87,0 0,8 116 - 12,8 0 1.009,1
23:43 17,8 15,6 17,4 87,0 0,8 157 - 12,8 0 1.009,1
23:42 17,8 15,6 17,4 87,0 0,7 95 - 12,8 0 1.009,1
23:41 17,8 15,6 17,4 87,0 0,8 78 - 12,8 0 1.009,1
23:40 17,8 15,6 17,4 87,0 0,9 113 - 12,8 0 1.009,1
23:39 17,8 15,6 17,4 87,0 1,0 141 - 12,8 0 1.009,1
23:38 17,8 15,6 17,4 87,0 0,9 111 - 12,8 0 1.009,1
23:37 17,9 15,7 17,4 87,0 0,9 97 - 12,8 0 1.009,1
23:36 17,8 15,6 17,4 87,0 1,0 140 - 12,8 0 1.009,1
23:35 17,9 15,7 17,4 87,0 1,0 91 - 12,8 0 1.009,1
23:34 17,9 15,7 17,4 87,0 0,7 94 - 12,8 0 1.009,2
23:33 17,9 15,7 17,4 87,0 1,0 199 - 12,8 0 1.009,1
23:32 17,9 15,7 17,4 87,0 1,6 98 - 12,8 0 1.009,1
23:31 17,9 15,7 17,4 87,0 2,1 111 - 12,8 0 1.009,1
23:30 17,9 15,7 17,4 87,0 1,8 92 - 12,8 0 1.009,1
23:29 17,9 15,7 17,4 87,0 0,9 129 - 12,8 0 1.009,1
23:28 17,9 15,7 17,4 87,0 0,7 236 - 12,8 0 1.009,1
23:27 17,9 15,7 17,4 87,0 0,5 93 - 12,8 0 1.009,1
23:26 17,9 15,7 17,4 87,0 0,7 109 - 12,8 0 1.009,1
23:25 17,9 15,7 17,4 87,0 0,4 185 - 12,8 0 1.009,1
23:24 17,9 15,7 17,4 87,0 0,6 291 - 12,8 0 1.009,1
23:23 17,9 15,7 17,4 87,0 0,5 178 - 12,8 0 1.009,2
23:22 17,9 15,7 17,4 87,0 0,7 122 - 12,8 0 1.009,2
23:21 17,9 15,7 17,4 87,0 0,7 118 - 12,8 0 1.009,3
23:20 17,9 15,7 17,4 87,0 0,7 138 - 12,8 0 1.009,3
23:19 17,9 15,7 17,4 87,0 0,9 158 - 12,8 0 1.009,2
23:18 17,9 15,5 17,3 86,1 1,0 104 - 12,8 0 1.009,3
23:17 17,9 15,5 17,3 86,0 1,0 93 - 12,8 0 1.009,3
23:16 17,9 15,5 17,3 86,0 0,9 64 - 12,8 0 1.009,2
23:15 17,9 15,5 17,3 86,0 1,0 92 - 12,8 0 1.009,3
23:14 17,9 15,5 17,3 86,0 1,3 105 - 12,8 0 1.009,2
23:13 17,9 15,5 17,3 86,0 1,2 83 - 12,8 0 1.009,2
23:12 17,9 15,5 17,3 86,0 1,0 149 - 12,8 0 1.009,2
23:11 17,9 15,5 17,3 86,0 0,9 94 - 12,8 0 1.009,3
23:10 17,9 15,5 17,3 86,0 0,8 151 - 12,8 0 1.009,2
23:09 17,9 15,5 17,3 86,0 0,9 161 - 12,8 0 1.009,3
23:08 17,9 15,6 17,3 86,0 1,0 100 - 12,8 0 1.009,3
23:07 17,9 15,5 17,3 86,0 1,0 95 - 12,8 0 1.009,3
23:06 17,9 15,6 17,3 86,0 0,9 153 - 12,8 0 1.009,3
23:05 17,9 15,6 17,3 86,0 0,9 91 - 12,8 0 1.009,3
23:04 17,9 15,6 17,3 86,0 0,7 134 - 12,8 0 1.009,3
23:03 17,9 15,6 17,3 86,0 0,9 151 - 12,8 0 1.009,3
23:02 18,0 15,6 17,4 86,0 1,3 148 - 12,8 0 1.009,4
23:01 18,0 15,6 17,3 86,0 1,4 161 - 12,8 0 1.009,3
23:00 18,0 15,6 17,4 86,0 1,3 130 - 12,8 0 1.009,3
 
22:59 18,0 15,6 17,4 86,0 1,3 151 - 12,8 0 1.009,4
22:58 18,0 15,6 17,4 86,0 1,2 130 - 12,8 0 1.009,4
22:57 18,0 15,6 17,4 86,0 1,1 174 - 12,8 0 1.009,3
22:56 18,0 15,6 17,4 86,0 0,9 117 - 12,8 0 1.009,4
22:55 18,0 15,7 17,4 86,0 1,0 132 - 12,8 0 1.009,4
22:54 18,1 15,7 17,5 86,0 1,3 125 - 12,8 0 1.009,4
22:53 18,1 15,7 17,5 86,0 1,5 157 - 12,8 0 1.009,4
22:52 18,1 15,7 17,5 86,0 1,3 157 - 12,8 0 1.009,4
22:51 18,1 15,7 17,5 86,0 1,1 126 - 12,8 0 1.009,4
22:50 18,1 15,6 17,4 85,2 1,2 113 - 12,8 0 1.009,4
22:49 18,1 15,5 17,3 85,0 1,2 103 - 12,8 0 1.009,4
22:48 18,1 15,5 17,3 85,0 1,1 102 - 12,8 0 1.009,4
22:47 18,1 15,5 17,4 85,0 1,0 120 - 12,8 0 1.009,4
22:46 18,1 15,5 17,4 85,0 1,0 107 - 12,8 0 1.009,4
22:45 18,1 15,6 17,4 85,0 0,9 125 - 12,8 0 1.009,4
22:44 18,1 15,6 17,4 85,0 1,0 152 - 12,8 0 1.009,4
22:43 18,1 15,6 17,4 85,0 0,9 155 - 12,8 0 1.009,5
22:42 18,2 15,6 17,4 85,0 0,9 147 - 12,8 0 1.009,5
22:41 18,2 15,6 17,4 85,0 0,9 145 - 12,8 0 1.009,5
22:40 18,2 15,6 17,4 85,0 0,9 143 - 12,8 0 1.009,5
22:39 18,2 15,6 17,4 85,0 0,9 147 - 12,8 0 1.009,5
22:38 18,2 15,6 17,4 85,0 0,9 136 - 12,8 0 1.009,5
22:37 18,2 15,6 17,4 85,0 0,8 103 - 12,8 0 1.009,6
22:36 18,2 15,6 17,5 85,0 0,7 151 - 12,8 0 1.009,6
22:35 18,2 15,6 17,5 85,0 0,7 122 - 12,8 0 1.009,6
22:34 18,2 15,7 17,5 85,0 0,7 151 - 12,8 0 1.009,6
22:33 18,2 15,7 17,5 85,0 0,7 124 - 12,8 0 1.009,6
22:32 18,2 15,7 17,5 85,0 0,8 153 - 12,8 0 1.009,6
22:31 18,2 15,7 17,5 85,0 0,7 146 - 12,8 0 1.009,6
22:30 18,3 15,7 17,5 85,0 0,8 160 - 12,8 0 1.009,6
22:29 18,3 15,7 17,5 85,0 0,8 125 - 12,8 0 1.009,6
22:28 18,3 15,7 17,5 85,0 0,9 156 - 12,8 0 1.009,7
22:27 18,3 15,7 17,6 85,0 0,7 152 - 12,8 0 1.009,6
22:26 18,3 15,8 17,6 85,0 0,9 101 - 12,8 0 1.009,6
22:25 18,3 15,7 17,6 84,9 0,9 144 - 12,8 0 1.009,7
22:24 18,3 15,6 17,5 84,0 0,8 116 - 12,8 0 1.009,7
22:23 18,3 15,6 17,5 84,0 0,8 146 - 12,8 0 1.009,7
22:22 18,3 15,6 17,5 84,0 0,9 155 - 12,8 0 1.009,7
22:21 18,3 15,6 17,5 84,0 0,8 128 - 12,8 0 1.009,7
22:20 18,3 15,6 17,5 84,0 0,5 124 - 12,8 0 1.009,7
22:19 18,4 15,6 17,5 84,0 0,7 126 - 12,8 0 1.009,7
22:18 18,4 15,6 17,5 84,0 0,7 155 - 12,8 0 1.009,7
22:17 18,4 15,6 17,5 84,0 0,4 101 - 12,8 0 1.009,8
22:16 18,4 15,6 17,5 84,0 0,1 101 - 12,8 0 1.009,8
22:15 18,4 15,6 17,5 84,0 0,0 179 - 12,8 0 1.009,8
22:14 18,4 15,6 17,5 84,0 0,0 107 - 12,8 0 1.009,8
22:13 18,4 15,6 17,5 84,0 0,0 149 - 12,8 0 1.009,8
22:12 18,4 15,7 17,5 84,0 0,0 163 - 12,8 0 1.009,8
22:11 18,4 15,7 17,5 84,0 0,0 125 - 12,8 0 1.009,8
22:10 18,4 15,7 17,5 84,0 0,0 143 - 12,8 0 1.009,8
22:09 18,4 15,7 17,5 84,0 0,0 153 - 12,8 0 1.009,8
22:08 18,4 15,7 17,6 84,0 0,0 130 - 12,8 0 1.009,8
22:07 18,4 15,7 17,6 84,0 0,0 102 - 12,8 0 1.009,8
22:06 18,4 15,6 17,5 83,7 0,0 88 - 12,8 0 1.009,8
22:05 18,4 15,5 17,4 83,0 0,0 120 - 12,8 0 1.009,8
22:04 18,4 15,5 17,4 83,0 0,0 105 - 12,8 0 1.009,9
22:03 18,5 15,5 17,4 83,0 0,0 149 - 12,8 0 1.009,9
22:02 18,5 15,5 17,4 83,0 0,0 128 - 12,8 0 1.009,9
22:01 18,5 15,6 17,5 83,0 0,0 134 - 12,8 0 1.009,9
22:00 18,5 15,6 17,5 83,0 0,0 107 - 12,8 0 1.009,9
 
21:59 18,5 15,6 17,5 83,0 0,0 148 - 12,8 0 1.009,9
21:58 18,5 15,6 17,5 83,0 0,0 103 - 12,8 0 1.009,9
21:57 18,5 15,6 17,5 83,0 0,0 116 - 12,8 0 1.009,9
21:56 18,5 15,6 17,5 83,0 0,0 126 - 12,8 0 1.010,0
21:55 18,6 15,6 17,5 83,0 0,0 113 - 12,8 0 1.010,0
21:54 18,6 15,6 17,6 83,0 0,0 123 - 12,8 0 1.009,9
21:53 18,6 15,6 17,6 83,0 0,0 148 - 12,8 0 1.009,9
21:52 18,6 15,7 17,6 83,0 0,0 109 - 12,8 0 1.009,9
21:51 18,6 15,7 17,6 83,0 0,0 128 - 12,8 0 1.009,9
21:50 18,6 15,7 17,6 83,0 0,0 130 - 12,8 0 1.009,9
21:49 18,6 15,7 17,6 83,0 0,0 126 - 12,8 0 1.010,0
21:48 18,7 15,6 17,6 82,4 0,0 129 - 12,8 0 1.009,9
21:47 18,7 15,6 17,5 82,0 0,0 123 - 12,8 0 1.009,9
21:46 18,7 15,6 17,5 82,0 0,0 136 - 12,8 0 1.010,0
21:45 18,7 15,6 17,5 82,0 0,0 156 - 12,8 0 1.010,0
21:44 18,7 15,7 17,7 82,8 0,0 153 - 12,8 0 1.010,0
21:43 18,7 15,6 17,5 82,0 0,0 145 - 12,8 0 1.010,0
21:42 18,7 15,6 17,5 82,0 0,0 134 - 12,8 0 1.010,0
21:41 18,7 15,6 17,6 82,0 0,0 122 - 12,8 0 1.010,1
21:40 18,7 15,6 17,6 82,0 0,0 135 - 12,8 0 1.010,1
21:39 18,7 15,6 17,6 82,0 0,0 135 - 12,8 0 1.010,1
21:38 18,8 15,6 17,6 82,0 0,0 139 - 12,8 0 1.010,1
21:37 18,8 15,6 17,6 82,0 0,0 155 - 12,8 0 1.010,1
21:36 18,8 15,7 17,6 82,0 0,0 116 - 12,8 0 1.010,2
21:35 18,8 15,7 17,6 82,0 0,0 140 - 12,8 0 1.010,2
21:34 18,8 15,7 17,7 82,0 0,0 149 - 12,8 0 1.010,2
21:33 18,8 15,7 17,7 82,0 0,0 108 - 12,8 0 1.010,2
21:32 18,8 15,7 17,7 82,0 0,0 105 - 12,8 0 1.010,2
21:31 18,8 15,7 17,7 82,0 0,0 139 - 12,8 0 1.010,2
21:30 18,8 15,7 17,7 82,0 0,0 121 - 12,8 0 1.010,2
21:29 18,8 15,7 17,7 82,0 0,0 128 - 12,8 0 1.010,2
21:28 18,8 15,7 17,7 82,0 0,0 128 - 12,8 0 1.010,1
21:27 18,9 15,7 17,7 82,0 0,0 123 - 12,8 0 1.010,1
21:26 18,9 15,8 17,7 82,0 0,0 124 - 12,8 0 1.010,2
21:25 18,9 15,8 17,7 82,0 0,0 118 - 12,8 0 1.010,2
21:24 18,9 15,7 17,7 81,5 0,0 127 - 12,8 0 1.010,2
21:23 18,9 15,6 17,6 81,0 0,0 129 - 12,8 0 1.010,3
21:22 18,9 15,6 17,6 81,0 0,0 117 - 12,8 0 1.010,3
21:21 18,9 15,6 17,6 81,0 0,0 120 - 12,8 0 1.010,3
21:20 18,9 15,6 17,7 81,0 0,0 130 - 12,8 0 1.010,3
21:19 18,9 15,6 17,7 81,0 0,0 127 - 12,8 0 1.010,3
21:18 18,9 15,6 17,7 81,0 0,0 131 - 12,8 0 1.010,2
21:17 18,9 15,6 17,7 81,0 0,0 114 - 12,8 0 1.010,2
21:16 18,9 15,6 17,6 81,0 0,0 122 - 12,8 0 1.010,2
21:15 19,0 15,7 17,7 81,0 0,0 117 - 12,8 0 1.010,2
21:14 19,0 15,7 17,7 81,0 0,0 147 - 12,8 0 1.010,2
21:13 19,0 15,7 17,7 81,0 0,0 141 - 12,8 0 1.010,2
21:12 19,0 15,7 17,7 81,0 0,0 117 - 12,8 0 1.010,3
21:11 19,0 15,7 17,7 81,0 0,0 90 - 12,8 0 1.010,3
21:10 19,0 15,7 17,7 81,0 0,0 95 - 12,8 0 1.010,3
21:09 19,0 15,7 17,7 81,0 0,0 97 - 12,8 0 1.010,2
21:08 19,0 15,7 17,7 81,0 0,0 100 - 12,8 0 1.010,3
21:07 19,0 15,7 17,7 81,0 0,0 111 - 12,8 0 1.010,2
21:06 19,0 15,7 17,8 81,0 0,0 136 - 12,8 0 1.010,2
21:05 19,0 15,7 17,8 81,0 0,1 143 - 12,8 0 1.010,2
21:04 19,0 15,7 17,8 81,0 0,1 128 - 12,8 0 1.010,2
21:03 19,1 15,8 17,8 81,0 0,0 137 - 12,8 0 1.010,2
21:02 19,1 15,8 17,8 81,0 0,0 135 - 12,8 0 1.010,2
21:01 19,1 15,8 17,8 81,0 0,0 135 - 12,8 0 1.010,2
21:00 19,1 15,8 17,8 81,0 0,0 103 - 12,8 0 1.010,2
 
20:59 19,1 15,8 17,8 81,0 0,2 135 - 12,8 0 1.010,1
20:58 19,1 15,8 17,8 81,0 0,5 136 - 12,8 0 1.010,2
20:57 19,1 15,8 17,8 81,0 0,8 100 - 12,8 0 1.010,2
20:56 19,1 15,8 17,8 81,0 0,8 108 - 12,8 0 1.010,2
20:55 19,1 15,8 17,9 81,0 0,6 121 - 12,8 0 1.010,2
20:54 19,2 15,9 17,9 81,0 0,5 122 - 12,8 0 1.010,1
20:53 19,2 15,8 17,9 81,0 0,5 117 - 12,8 0 1.010,1
20:52 19,2 15,9 17,9 81,0 0,5 132 - 12,8 0 1.010,1
20:51 19,2 15,9 17,9 81,0 0,6 103 - 12,8 0 1.010,1
20:50 19,2 15,9 17,9 81,0 0,7 99 - 12,8 0 1.010,2
20:49 19,2 15,9 17,9 81,0 0,7 106 - 12,8 0 1.010,2
20:48 19,2 15,9 17,9 81,0 0,5 115 - 12,8 0 1.010,1
20:47 19,2 15,9 17,9 81,0 0,5 116 - 12,8 0 1.010,1
20:46 19,2 15,9 17,9 81,0 0,5 109 - 12,8 0 1.010,1
20:45 19,2 15,9 17,9 81,0 0,5 111 - 12,8 0 1.010,1
20:44 19,2 15,9 17,9 81,0 0,5 115 - 12,8 0 1.010,1
20:43 19,2 15,9 18,0 81,0 0,4 138 - 12,8 0 1.010,2
20:42 19,3 16,0 18,0 81,0 0,4 138 - 12,8 0 1.010,2
20:41 19,3 16,0 18,0 81,0 0,4 138 - 12,8 0 1.010,2
20:40 19,3 16,0 18,0 81,0 0,4 134 - 12,8 0 1.010,2
20:39 19,3 16,0 18,0 81,0 0,4 155 - 12,8 0 1.010,3
20:38 19,3 16,0 18,0 81,0 0,5 153 - 12,8 0 1.010,3
20:37 19,3 16,0 18,0 81,0 0,4 147 - 12,8 0 1.010,3
20:36 19,3 16,0 18,0 81,0 0,3 147 - 12,8 0 1.010,3
20:35 19,3 16,0 18,1 81,0 0,2 146 - 12,8 0 1.010,3
20:34 19,3 16,0 18,1 81,0 0,3 146 - 12,8 0 1.010,3
20:33 19,3 16,0 18,1 81,0 0,3 146 - 12,8 0 1.010,3
20:32 19,3 16,0 18,1 81,0 0,4 145 - 12,8 0 1.010,3
20:31 19,4 16,1 18,1 81,0 0,3 145 - 12,8 0 1.010,3
20:30 19,4 16,2 18,2 81,7 0,4 159 - 12,8 0 1.010,4
20:29 19,4 16,3 18,3 82,0 0,5 159 - 12,8 0 1.010,4
20:28 19,4 16,3 18,3 82,0 0,5 101 - 12,8 0 1.010,4
20:27 19,4 16,3 18,3 82,0 0,5 151 - 12,8 0 1.010,4
20:26 19,4 16,3 18,3 82,0 0,4 139 - 12,8 4 1.010,4
20:25 19,5 16,3 18,3 82,0 0,4 161 - 12,8 5 1.010,4
20:24 19,5 16,3 18,3 82,0 0,5 188 - 12,8 5 1.010,4
20:23 19,5 16,4 18,4 82,0 0,6 195 - 12,8 6 1.010,4
20:22 19,5 16,4 18,4 82,0 0,5 129 - 12,8 7 1.010,5
20:21 19,5 16,4 18,4 82,0 0,4 213 - 12,8 7 1.010,5
20:20 19,5 16,4 18,4 82,0 0,5 205 - 12,8 7 1.010,5
20:19 19,5 16,4 18,4 82,0 0,4 196 - 12,8 7 1.010,5
20:18 19,5 16,4 18,4 82,0 0,4 188 - 12,8 9 1.010,5
20:17 19,6 16,4 18,4 82,0 0,4 207 - 12,8 9 1.010,5
20:16 19,6 16,4 18,4 82,0 0,4 206 - 12,8 9 1.010,5
20:15 19,6 16,4 18,4 82,0 0,5 208 - 12,8 9 1.010,6
20:14 19,6 16,4 18,4 82,0 0,6 208 - 12,8 9 1.010,6
20:13 19,6 16,5 18,5 82,0 0,5 190 - 12,8 9 1.010,5
20:12 19,6 16,5 18,5 82,0 0,5 159 - 12,8 11 1.010,4
20:11 19,6 16,6 18,6 82,9 0,5 200 - 12,8 11 1.010,3
20:10 19,6 16,5 18,5 82,2 0,7 203 - 12,8 11 1.010,3
20:09 19,6 16,7 18,7 83,0 0,7 195 - 12,8 12 1.010,3
20:08 19,6 16,7 18,7 83,0 0,5 197 - 12,8 12 1.010,3
20:07 19,7 16,7 18,7 83,0 0,5 145 - 12,8 12 1.010,3
20:06 19,7 16,7 18,7 83,0 0,5 159 - 12,8 14 1.010,3
20:05 19,7 16,7 18,7 83,0 0,6 201 - 12,8 15 1.010,3
20:04 19,7 16,7 18,7 83,0 0,5 207 - 12,8 17 1.010,2
20:03 19,7 16,8 18,7 83,0 0,6 145 - 12,8 19 1.010,3
20:02 19,7 16,8 18,8 83,0 0,7 181 - 12,8 21 1.010,2
20:01 19,7 16,8 18,8 83,0 0,7 165 - 12,8 25 1.010,2
20:00 19,7 16,8 18,8 83,0 0,6 176 - 12,8 27 1.010,2
 
19:59 19,7 16,8 18,8 83,0 0,6 189 - 12,8 29 1.010,2
19:58 19,7 16,8 18,8 83,0 0,6 180 - 12,8 31 1.010,2
19:57 19,7 16,8 18,8 83,0 0,6 181 - 12,8 33 1.010,2
19:56 19,7 16,8 18,8 83,0 0,8 184 - 12,8 35 1.010,2
19:55 19,8 16,8 18,8 83,0 0,9 188 - 12,8 36 1.010,3
19:54 19,8 16,8 18,8 83,0 1,1 192 - 12,8 39 1.010,3
19:53 19,8 16,8 18,8 83,0 1,0 191 - 12,8 41 1.010,3
19:52 19,8 16,8 18,8 83,0 0,8 180 - 12,8 43 1.010,3
19:51 19,8 16,9 18,8 83,0 0,7 188 - 12,8 44 1.010,3
19:50 19,8 16,9 18,8 83,0 0,8 203 - 12,8 46 1.010,3
19:49 19,8 16,9 18,8 83,0 1,1 203 - 12,8 47 1.010,3
19:48 19,8 16,9 18,9 83,0 1,2 186 - 12,8 47 1.010,3
19:47 19,8 16,9 18,9 83,0 1,0 205 - 12,8 48 1.010,3
19:46 19,8 16,9 18,9 83,0 0,8 197 - 12,8 49 1.010,3
19:45 19,8 16,9 18,9 83,0 0,9 198 - 12,8 49 1.010,4
19:44 19,8 16,9 18,9 83,0 1,1 207 - 12,8 49 1.010,3
19:43 19,8 16,9 18,9 83,0 1,1 205 - 12,8 49 1.010,2
19:42 19,8 16,9 18,9 83,0 1,2 185 - 12,8 48 1.010,2
19:41 19,8 16,9 18,9 83,0 1,4 192 - 12,8 47 1.010,3
19:40 19,8 16,9 18,9 83,0 1,3 192 - 12,8 48 1.010,3
19:39 19,8 16,9 18,9 83,0 1,0 202 - 12,8 49 1.010,4
19:38 19,8 16,9 18,9 83,0 1,0 199 - 12,8 49 1.010,5
19:37 19,8 16,9 18,9 83,0 1,0 201 - 12,8 48 1.010,5
19:36 19,8 16,9 18,9 83,0 1,2 186 - 12,8 49 1.010,5
19:35 19,8 16,9 18,9 83,0 1,4 185 - 12,8 49 1.010,5
19:34 19,8 16,9 18,9 83,0 1,6 186 - 12,8 50 1.010,5
19:33 19,8 16,9 18,9 83,0 1,4 211 - 12,8 53 1.010,4
19:32 19,8 16,9 18,9 83,0 1,3 184 - 12,8 54 1.010,5
19:31 19,8 16,9 18,9 83,0 1,3 207 - 12,8 55 1.010,5
19:30 19,8 16,9 18,9 83,0 1,4 210 - 12,8 58 1.010,5
19:29 19,8 16,9 18,9 83,0 1,7 218 - 12,8 61 1.010,5
19:28 19,8 16,9 18,9 83,0 1,9 197 - 12,8 63 1.010,5
19:27 19,8 16,9 18,9 83,0 2,1 201 - 12,8 63 1.010,5
19:26 19,8 16,9 18,9 83,0 2,2 196 - 12,8 64 1.010,5
19:25 19,8 16,9 18,9 83,0 2,2 213 - 12,8 67 1.010,5
19:24 19,8 16,9 18,9 83,0 2,0 209 - 12,8 68 1.010,5
19:23 19,8 16,9 18,9 83,0 2,1 195 - 12,8 71 1.010,5
19:22 19,8 16,9 18,9 83,0 2,3 217 - 12,8 75 1.010,5
19:21 19,9 16,9 18,9 83,0 2,4 198 - 12,8 79 1.010,5
19:20 19,9 16,9 18,9 83,0 2,3 213 - 12,8 81 1.010,5
19:19 19,9 16,9 18,9 83,0 2,2 199 - 12,8 83 1.010,5
19:18 19,9 16,9 18,9 83,0 2,4 206 - 12,8 83 1.010,5
19:17 19,9 16,9 18,9 83,0 2,4 213 - 12,8 84 1.010,5
19:16 19,9 16,9 18,9 83,0 2,4 211 - 12,8 86 1.010,6
19:15 19,9 16,9 18,9 83,0 2,4 215 - 12,8 88 1.010,6
19:14 19,9 17,0 18,9 83,0 2,5 205 - 12,8 88 1.010,6
19:13 19,9 17,0 18,9 83,0 2,3 195 - 12,8 90 1.010,6
19:12 19,9 17,0 18,9 83,0 2,1 233 - 12,8 92 1.010,6
19:11 19,9 17,0 18,9 83,0 2,1 205 - 12,8 97 1.010,6
19:10 19,9 17,0 19,0 83,0 2,1 211 - 12,8 98 1.010,6
19:09 19,9 17,0 19,0 83,0 1,9 212 - 12,8 110 1.010,6
19:08 19,9 17,0 19,0 83,0 1,6 211 - 12,8 110 1.010,6
19:07 19,9 17,0 18,9 83,0 1,6 195 - 12,8 99 1.010,6
19:06 19,9 16,9 18,9 83,0 1,9 216 - 12,8 94 1.010,5
19:05 19,9 16,9 18,9 83,0 1,9 198 - 12,8 96 1.010,6
19:04 19,9 16,9 18,9 83,0 1,8 209 - 12,8 95 1.010,6
19:03 19,8 16,9 18,9 83,0 2,0 217 - 12,8 106 1.010,6
19:02 19,8 16,9 18,9 83,0 2,3 199 - 12,8 109 1.010,6
19:01 19,8 16,9 18,9 83,0 2,3 199 - 12,8 99 1.010,5
19:00 19,8 16,9 18,9 83,0 2,2 214 - 12,8 92 1.010,5
 
18:59 19,8 16,8 18,8 83,0 2,2 204 - 12,8 105 1.010,6
18:58 19,8 16,8 18,8 83,0 2,3 213 - 12,8 123 1.010,6
18:57 19,8 16,8 18,8 83,0 2,4 215 - 12,8 113 1.010,6
18:56 19,8 16,8 18,8 83,0 2,8 211 - 12,8 100 1.010,6
18:55 19,8 16,8 18,8 83,0 3,1 228 - 12,8 91 1.010,6
18:54 19,7 16,8 18,8 83,0 3,2 226 - 12,8 87 1.010,6
18:53 19,8 16,8 18,8 83,0 3,4 209 - 12,8 86 1.010,7
18:52 19,8 16,8 18,8 83,0 3,6 211 - 12,8 86 1.010,6
18:51 19,8 16,8 18,8 83,0 3,4 215 - 12,8 86 1.010,6
18:50 19,7 16,8 18,8 83,0 3,2 232 - 12,8 89 1.010,6
18:49 19,8 16,8 18,8 83,0 3,5 228 - 12,8 90 1.010,6
18:48 19,8 16,8 18,8 83,0 3,6 229 - 12,8 92 1.010,6
18:47 19,8 16,8 18,8 83,0 3,5 196 - 12,8 94 1.010,6
18:46 19,8 17,0 18,9 83,5 3,1 234 - 12,8 97 1.010,6
18:45 19,8 17,1 19,0 84,0 3,2 265 - 12,8 100 1.010,6
18:44 19,8 17,1 19,0 84,0 2,8 234 - 12,8 103 1.010,6
18:43 19,8 17,1 19,0 84,0 2,8 210 - 12,8 104 1.010,6
18:42 19,8 17,0 19,0 84,0 3,0 221 - 12,8 106 1.010,6
18:41 19,8 17,0 18,9 83,7 3,2 219 - 12,8 107 1.010,6
18:40 19,8 17,0 18,9 83,5 3,4 223 - 12,8 109 1.010,6
18:39 19,8 16,9 18,9 83,4 3,4 218 - 12,8 109 1.010,6
18:38 19,8 16,9 18,9 83,0 3,4 226 - 12,8 112 1.010,6
18:37 19,8 16,9 18,9 83,1 3,6 223 - 12,8 113 1.010,6
18:36 19,8 17,1 19,0 84,0 3,8 230 - 12,8 114 1.010,6
18:35 19,8 17,1 19,0 84,0 3,4 242 - 12,8 114 1.010,6
18:34 19,8 17,1 19,0 84,0 2,9 228 - 12,8 113 1.010,6
18:33 19,8 17,1 19,0 84,0 2,5 227 - 12,8 113 1.010,6
18:32 19,8 17,0 19,0 84,0 2,8 159 - 12,8 113 1.010,7
18:31 19,8 16,9 18,8 83,1 3,1 208 - 12,8 115 1.010,7
18:30 19,8 16,8 18,8 83,0 4,1 228 - 12,8 116 1.010,6
18:29 19,8 16,8 18,8 83,0 4,6 223 - 12,8 118 1.010,7
18:28 19,8 17,0 18,9 83,6 4,5 220 - 12,8 120 1.010,6
18:27 19,8 17,1 19,0 84,0 4,0 207 - 12,8 120 1.010,6
18:26 19,8 17,0 19,0 84,0 3,5 238 - 12,8 122 1.010,6
18:25 19,8 17,1 19,0 84,0 3,3 208 - 12,8 123 1.010,6
18:24 19,8 17,0 19,0 84,0 3,4 226 - 12,8 126 1.010,7
18:23 19,8 17,0 19,0 84,0 3,8 247 - 12,8 127 1.010,6
18:22 19,8 17,0 19,0 84,0 4,1 229 - 12,8 128 1.010,6
18:21 19,8 17,0 19,0 84,0 4,1 229 - 12,8 133 1.010,6
18:20 19,8 17,0 18,9 84,0 3,9 225 - 12,8 137 1.010,6
18:19 19,8 17,0 18,9 84,0 4,0 259 - 12,8 139 1.010,6
18:18 19,8 17,0 18,9 84,0 4,4 233 - 12,8 141 1.010,6
18:17 19,8 17,0 19,0 84,0 4,7 236 - 12,8 143 1.010,6
18:16 19,8 17,0 19,0 84,0 4,9 240 - 12,8 146 1.010,6
18:15 19,8 17,0 19,0 84,0 5,0 224 - 12,8 145 1.010,6
18:14 19,8 17,0 18,9 84,0 4,8 219 - 12,8 142 1.010,6
18:13 19,8 17,0 19,0 84,0 5,0 252 - 12,8 141 1.010,6
18:12 19,8 17,0 19,0 84,0 5,4 232 - 12,8 141 1.010,6
18:11 19,8 17,0 18,9 84,0 5,6 230 - 12,8 139 1.010,6
18:10 19,8 17,0 19,0 84,0 5,5 233 - 12,8 139 1.010,5
18:09 19,8 17,0 19,0 84,0 5,4 242 - 12,8 137 1.010,5
18:08 19,8 17,0 19,0 84,0 5,4 250 - 12,8 135 1.010,5
18:07 19,8 17,0 18,9 83,8 5,5 257 - 12,8 134 1.010,6
18:06 19,8 16,9 18,9 83,4 5,7 236 - 12,8 133 1.010,6
18:05 19,8 17,0 19,0 84,0 5,8 236 - 12,8 132 1.010,6
18:04 19,8 17,1 19,0 84,0 5,7 223 - 12,8 132 1.010,6
18:03 19,8 17,1 19,0 84,0 5,7 213 - 12,8 130 1.010,6
18:02 19,8 17,1 19,0 83,9 5,5 205 - 12,8 130 1.010,6
18:01 19,8 16,9 18,9 83,0 5,5 217 - 12,8 131 1.010,6
18:00 19,8 16,9 18,9 83,0 5,8 183 - 12,8 133 1.010,6
 
17:59 19,8 16,9 18,9 83,0 5,8 225 - 12,8 135 1.010,6
17:58 19,8 16,9 18,9 83,0 6,2 250 - 12,8 137 1.010,6
17:57 19,8 16,9 18,9 83,0 6,3 234 - 12,8 140 1.010,5
17:56 19,8 16,9 18,9 83,0 6,4 227 - 12,8 141 1.010,5
17:55 19,9 16,9 18,9 83,0 6,3 251 - 12,8 142 1.010,6
17:54 19,9 16,9 18,9 83,0 6,1 232 - 12,8 147 1.010,6
17:53 19,9 17,0 19,0 83,0 5,8 239 - 12,8 151 1.010,6
17:52 19,9 17,0 19,0 83,0 5,7 212 - 12,8 154 1.010,6
17:51 20,0 17,0 19,0 83,0 5,5 233 - 12,8 156 1.010,6
17:50 20,0 17,0 19,0 83,0 5,3 215 - 12,8 156 1.010,6
17:49 19,9 17,0 19,0 83,0 5,2 234 - 12,8 157 1.010,6
17:48 19,9 17,0 19,0 83,0 5,1 234 - 12,8 161 1.010,6
17:47 19,9 17,0 19,0 83,0 5,3 244 - 12,8 165 1.010,6
17:46 19,9 17,0 19,0 83,0 5,7 244 - 12,8 167 1.010,6
17:45 20,0 17,0 19,0 83,0 5,5 233 - 12,8 170 1.010,6
17:44 19,9 17,0 19,0 83,0 5,2 206 - 12,8 174 1.010,6
17:43 19,9 17,0 19,0 83,0 5,6 254 - 12,8 178 1.010,6
17:42 19,9 17,0 19,0 83,0 6,2 238 - 12,8 181 1.010,6
17:41 20,0 17,0 19,0 83,0 6,2 227 - 12,8 183 1.010,6
17:40 19,9 17,0 19,0 83,0 6,1 236 - 12,8 187 1.010,6
17:39 20,0 17,0 19,0 83,0 6,3 239 - 12,8 197 1.010,6
17:38 20,0 16,9 18,9 82,2 6,7 218 - 12,8 206 1.010,6
17:37 20,0 17,1 19,1 83,0 6,9 227 - 12,8 207 1.010,6
17:36 20,1 17,1 19,1 83,0 6,2 217 - 12,8 205 1.010,7
17:35 20,1 17,1 19,1 83,0 5,4 206 - 12,8 196 1.010,7
17:34 20,1 17,1 19,1 83,0 5,2 225 - 12,8 198 1.010,7
17:33 20,1 17,1 19,1 83,0 5,1 209 - 12,8 206 1.010,7
17:32 20,1 16,9 19,0 82,0 4,8 238 - 12,8 211 1.010,7
17:31 20,1 16,9 18,9 82,0 4,6 208 - 12,8 210 1.010,7
17:30 20,0 16,9 18,9 82,0 4,5 216 - 12,8 205 1.010,7
17:29 20,0 16,9 18,9 82,0 4,6 232 - 12,8 204 1.010,6
17:28 20,0 16,9 18,9 82,0 4,6 234 - 12,8 206 1.010,7
17:27 20,0 16,9 18,9 82,0 4,6 244 - 12,8 217 1.010,6
17:26 20,0 16,9 18,9 82,0 4,5 225 - 12,8 230 1.010,6
17:25 20,0 16,9 18,9 82,0 4,9 209 - 12,8 230 1.010,7
17:24 20,0 16,9 18,9 82,0 4,9 221 - 12,8 224 1.010,7
17:23 20,0 16,9 18,9 82,0 4,7 203 - 12,8 221 1.010,7
17:22 20,0 16,8 18,9 82,0 5,0 247 - 12,8 223 1.010,7
17:21 20,0 16,8 18,8 82,0 5,5 246 - 12,8 227 1.010,7
17:20 20,0 16,8 18,8 82,0 4,9 231 - 12,8 220 1.010,7
17:19 20,0 16,8 18,8 82,0 4,7 187 - 12,8 240 1.010,8
17:18 19,9 16,8 18,8 82,0 4,7 215 - 12,8 241 1.010,7
17:17 19,9 16,8 18,8 82,0 5,0 227 - 12,8 244 1.010,7
17:16 19,9 16,8 18,8 82,0 5,2 226 - 12,8 245 1.010,7
17:15 19,9 16,8 18,8 82,0 5,2 230 - 12,8 241 1.010,8
17:14 19,9 16,8 18,8 82,0 5,6 206 - 12,8 246 1.010,8
17:13 19,9 16,8 18,8 82,0 5,8 207 - 12,8 252 1.010,8
17:12 19,9 16,9 18,9 82,6 5,8 229 - 12,8 250 1.010,7
17:11 19,9 16,9 18,9 83,0 5,5 219 - 12,8 232 1.010,7
17:10 19,9 16,9 18,9 83,0 5,3 226 - 12,8 221 1.010,8
17:09 19,8 16,9 18,9 83,0 5,1 253 - 12,8 216 1.010,8
17:08 19,8 16,9 18,9 83,0 4,8 219 - 12,8 205 1.010,7
17:07 19,8 16,9 18,9 83,0 4,7 214 - 12,8 210 1.010,7
17:06 19,8 16,9 18,8 83,0 4,7 207 - 12,8 214 1.010,7
17:05 19,8 16,8 18,8 83,0 4,9 239 - 12,8 238 1.010,8
17:04 19,8 16,8 18,8 83,0 5,2 253 - 12,8 259 1.010,8
17:03 19,7 16,8 18,8 83,0 5,3 214 - 12,8 276 1.010,8
17:02 19,7 16,8 18,8 83,0 5,4 242 - 12,8 295 1.010,8
17:01 19,7 16,8 18,7 83,0 5,3 232 - 12,8 296 1.010,7
17:00 19,7 16,7 18,7 83,0 4,7 251 - 12,8 228 1.010,8
 
16:59 19,7 16,7 18,7 83,0 4,3 217 - 12,8 202 1.010,8
16:58 19,6 16,7 18,6 83,0 4,4 247 - 12,8 204 1.010,8
16:57 19,6 16,6 18,6 83,0 5,0 200 - 12,8 208 1.010,8
16:56 19,6 16,6 18,6 83,0 5,3 224 - 12,8 208 1.010,8
16:55 19,5 16,6 18,6 83,0 5,3 240 - 12,8 201 1.010,8
16:54 19,5 16,7 18,6 83,6 4,8 234 - 12,8 195 1.010,8
16:53 19,5 16,7 18,7 84,0 5,0 236 - 12,8 198 1.010,8
16:52 19,5 16,7 18,6 84,0 5,3 234 - 12,8 199 1.010,7
16:51 19,5 16,7 18,6 84,0 5,3 190 - 12,8 199 1.010,8
16:50 19,4 16,7 18,7 84,4 5,0 217 - 12,8 198 1.010,8
16:49 19,4 16,8 18,7 85,0 4,6 219 - 12,8 194 1.010,8
16:48 19,4 16,8 18,7 85,0 5,0 231 - 12,8 184 1.010,8
16:47 19,3 16,8 18,6 85,0 5,7 253 - 12,8 168 1.010,8
16:46 19,3 16,8 18,6 85,0 5,9 244 - 12,8 154 1.010,8
16:45 19,3 16,7 18,6 85,0 5,3 236 - 12,8 139 1.010,8
16:44 19,3 16,7 18,6 85,0 4,9 209 - 12,8 126 1.010,8
16:43 19,3 16,8 18,7 85,5 4,9 236 - 12,8 117 1.010,8
16:42 19,3 16,9 18,7 86,0 5,0 204 - 12,8 111 1.010,8
16:41 19,3 16,9 18,7 86,0 5,3 234 - 12,8 113 1.010,8
16:40 19,3 17,0 18,9 87,0 5,5 237 - 12,8 121 1.010,8
16:39 19,2 17,0 18,8 86,8 5,5 236 - 12,8 136 1.010,7
16:38 19,2 16,9 18,7 86,4 5,4 211 - 12,8 155 1.010,7
16:37 19,2 17,0 18,8 87,0 5,4 260 - 12,8 172 1.010,7
16:36 19,2 17,0 18,8 87,0 5,3 228 - 12,8 180 1.010,8
16:35 19,2 17,0 18,8 87,0 5,3 217 - 12,8 178 1.010,7
16:34 19,2 17,0 18,8 87,0 5,4 228 - 12,8 169 1.010,7
16:33 19,2 17,0 18,8 86,8 5,2 208 - 12,8 163 1.010,7
16:32 19,2 16,8 18,7 86,0 5,4 235 - 12,8 174 1.010,7
16:31 19,2 16,8 18,7 86,0 5,7 219 - 12,8 203 1.010,7
16:30 19,2 16,9 18,8 86,7 5,7 228 - 12,8 239 1.010,7
16:29 19,2 17,0 18,8 87,0 5,5 237 - 12,8 264 1.010,7
16:28 19,2 17,0 18,8 87,0 5,6 247 - 12,8 268 1.010,7
16:27 19,2 17,0 18,8 87,0 5,4 238 - 12,8 260 1.010,7
16:26 19,1 16,9 18,7 87,0 4,9 219 - 12,8 252 1.010,7
16:25 19,1 16,9 18,7 87,0 4,6 257 - 12,8 246 1.010,7
16:24 19,0 16,8 18,6 87,0 4,3 205 - 12,8 247 1.010,7
16:23 19,0 16,8 18,6 87,0 4,7 286 - 12,8 253 1.010,7
16:22 19,0 16,8 18,6 87,0 5,5 232 - 12,8 262 1.010,6
16:21 19,0 16,8 18,6 87,0 6,1 239 - 12,8 271 1.010,7
16:20 19,0 16,8 18,6 87,0 5,9 223 - 12,8 277 1.010,7
16:19 19,0 16,7 18,5 87,0 6,1 267 - 12,8 265 1.010,7
16:18 19,0 16,9 18,7 87,8 5,9 229 9,4 12,8 256 1.010,7
16:17 19,0 16,9 18,7 88,0 5,7 222 - 12,8 247 1.010,7
16:16 19,0 16,9 18,7 88,0 5,2 206 - 12,8 239 1.010,7
16:15 19,0 16,9 18,7 88,0 5,6 236 - 12,8 232 1.010,7
16:14 19,0 17,0 18,8 88,5 5,6 226 - 12,8 228 1.010,7
16:13 19,0 17,1 18,8 89,0 5,3 226 - 12,8 223 1.010,7
16:12 18,9 17,1 18,8 89,0 4,7 212 - 12,8 218 1.010,7
16:11 18,9 17,0 18,8 89,0 4,6 236 - 12,8 216 1.010,7
16:10 18,8 17,0 18,7 89,0 4,4 223 - 12,8 215 1.010,6
16:09 18,8 16,9 18,7 89,0 4,3 243 - 12,8 214 1.010,6
16:08 18,7 16,9 18,6 89,0 4,6 242 - 12,8 214 1.010,6
16:07 18,8 16,9 18,6 89,0 5,6 211 - 12,8 214 1.010,5
16:06 18,8 16,9 18,7 89,0 6,2 244 - 12,8 215 1.010,5
16:05 18,8 17,0 18,7 89,0 6,2 238 - 12,8 217 1.010,6
16:04 18,8 17,0 18,7 89,0 6,0 228 - 12,8 220 1.010,6
16:03 18,8 17,0 18,7 89,4 6,3 253 - 12,8 224 1.010,6
16:02 18,8 17,1 18,8 90,0 6,4 227 - 12,8 229 1.010,6
16:01 18,8 17,1 18,8 90,0 6,1 245 - 12,8 268 1.010,6
16:00 18,8 17,1 18,8 90,0 5,3 209 - 12,8 399 1.010,7
 
15:59 18,7 17,0 18,7 90,0 5,2 274 - 12,8 370 1.010,7
15:58 18,7 17,0 18,7 90,0 5,6 230 - 12,8 328 1.010,7
15:57 18,6 16,9 18,6 90,0 6,7 207 - 12,8 328 1.010,7
15:56 18,6 16,9 18,6 90,0 7,2 240 - 12,8 302 1.010,7
15:55 18,6 16,9 18,6 90,0 7,2 236 - 12,8 290 1.010,7
15:54 18,6 16,9 18,6 90,0 6,5 223 - 12,8 286 1.010,7
15:53 18,6 16,9 18,5 90,0 5,9 242 - 12,8 279 1.010,7
15:52 18,6 16,9 18,5 90,0 5,3 232 - 12,8 276 1.010,7
15:51 18,5 16,8 18,5 90,0 5,4 215 - 12,8 296 1.010,7
15:50 18,5 16,8 18,5 90,0 5,8 215 - 12,8 336 1.010,7
15:49 18,5 16,8 18,5 90,0 6,0 207 - 12,8 394 1.010,7
15:48 18,5 16,8 18,5 90,0 5,8 186 - 12,8 344 1.010,7
15:47 18,5 16,9 18,5 90,0 5,3 213 - 12,8 270 1.010,7
15:46 18,6 16,9 18,6 90,0 5,2 235 - 12,8 223 1.010,7
15:45 18,7 17,0 18,7 90,0 5,3 259 - 12,8 195 1.010,7
15:44 18,7 17,0 18,7 90,0 5,0 223 - 12,8 168 1.010,7
15:43 18,8 17,1 18,8 90,0 5,2 192 - 12,8 163 1.010,7
15:42 18,8 16,9 18,7 89,2 5,5 249 - 12,8 152 1.010,7
15:41 18,8 16,9 18,7 89,0 5,6 219 - 12,8 143 1.010,7
15:40 18,8 17,0 18,7 89,0 5,5 201 - 12,8 136 1.010,7
15:39 18,8 17,0 18,7 89,0 5,1 213 - 12,8 135 1.010,6
15:38 18,8 17,0 18,7 89,0 5,3 238 - 12,8 139 1.010,6
15:37 18,8 17,0 18,7 89,0 5,4 240 - 12,8 148 1.010,6
15:36 18,9 17,0 18,7 89,0 5,2 211 - 12,8 159 1.010,6
15:35 18,9 17,0 18,8 89,0 5,1 247 - 12,8 172 1.010,6
15:34 18,9 17,1 18,8 89,0 5,3 223 - 12,8 190 1.010,7
15:33 18,9 17,2 18,9 89,5 4,9 269 - 12,8 212 1.010,7
15:32 18,9 17,3 18,4 90,0 4,3 196 - 12,8 226 1.010,7
15:31 18,9 17,1 18,9 89,3 4,2 257 - 12,8 224 1.010,7
15:30 18,9 17,1 18,8 89,0 4,9 222 - 12,8 216 1.010,6
15:29 19,0 17,1 18,9 89,2 6,0 228 - 12,8 212 1.010,6
15:28 19,0 17,3 18,4 90,0 5,9 242 9,8 12,8 220 1.010,6
15:27 19,1 17,4 18,5 90,0 5,7 191 - 12,8 233 1.010,6
15:26 19,1 17,4 18,5 90,0 5,2 209 - 12,8 237 1.010,6
15:25 19,1 17,4 18,5 90,0 4,9 247 - 12,8 242 1.010,6
15:24 19,1 17,4 18,6 90,0 4,8 213 - 12,8 242 1.010,5
15:23 19,1 17,4 18,6 90,0 5,1 253 - 12,8 241 1.010,5
15:22 19,1 17,5 18,6 90,0 5,3 218 - 12,8 240 1.010,5
15:21 19,2 17,5 18,6 90,0 5,7 242 - 12,8 241 1.010,5
15:20 19,2 17,5 18,6 90,0 5,7 228 - 12,8 241 1.010,5
15:19 19,2 17,5 18,7 90,0 5,5 200 - 12,8 243 1.010,5
15:18 19,3 17,6 18,7 90,0 5,5 219 - 12,8 243 1.010,5
15:17 19,3 17,6 18,8 90,0 5,8 226 - 12,8 245 1.010,5
15:16 19,4 17,7 18,8 90,0 5,6 219 - 12,8 240 1.010,5
15:15 19,4 17,7 18,8 90,0 4,7 217 - 12,8 234 1.010,4
15:14 19,3 17,7 18,8 90,0 3,8 229 - 12,8 226 1.010,4
15:13 19,3 17,7 18,8 90,0 3,6 249 - 12,8 218 1.010,4
15:12 19,3 17,6 18,8 90,0 3,8 192 - 12,8 186 1.010,4
15:11 19,3 17,6 18,7 90,0 3,8 191 - 12,8 146 1.010,4
15:10 19,3 17,6 18,7 90,0 3,6 219 - 12,8 145 1.010,4
15:09 19,3 17,6 18,7 90,0 4,4 228 - 12,8 147 1.010,3
15:08 19,2 17,5 18,7 90,0 5,1 225 - 12,8 181 1.010,3
15:07 19,2 17,5 18,6 90,0 5,5 235 - 12,8 212 1.010,3
15:06 19,2 17,5 18,6 90,1 5,8 228 - 12,8 248 1.010,3
15:05 19,2 17,7 18,7 91,0 5,9 234 - 12,8 282 1.010,3
15:04 19,2 17,7 18,7 91,0 5,7 223 - 12,8 276 1.010,4
15:03 19,2 17,7 18,7 91,0 5,3 233 - 12,8 292 1.010,3
15:02 19,2 17,6 18,7 91,0 4,8 219 - 12,8 277 1.010,3
15:01 19,2 17,6 18,6 91,0 4,7 228 - 12,8 252 1.010,3
15:00 19,2 17,6 18,7 91,0 4,8 199 - 12,8 209 1.010,3
 
14:59 19,2 17,6 18,7 91,0 4,9 246 - 12,8 177 1.010,3
14:58 19,1 17,6 18,6 91,0 4,6 205 - 12,8 154 1.010,3
14:57 19,1 17,5 18,6 91,0 4,5 217 - 12,8 133 1.010,3
14:56 19,1 17,5 18,5 91,0 4,5 234 - 12,8 111 1.010,3
14:55 19,0 17,5 18,5 91,0 4,1 214 - 12,8 108 1.010,3
14:54 19,0 17,5 18,5 91,0 3,8 243 - 12,8 117 1.010,3
14:53 19,0 17,5 18,5 91,0 4,2 215 - 12,8 116 1.010,3
14:52 19,0 17,5 18,5 91,0 4,7 210 - 12,8 106 1.010,2
14:51 19,0 17,5 18,5 91,0 4,6 232 - 12,8 98 1.010,3
14:50 19,1 17,5 18,5 91,0 4,6 206 - 12,8 99 1.010,3
14:49 19,1 17,7 18,6 91,9 4,9 240 - 12,8 106 1.010,2
14:48 19,1 17,8 18,7 92,0 4,9 234 - 12,8 123 1.010,2
14:47 19,1 17,7 18,6 92,0 4,1 235 - 12,8 144 1.010,3
14:46 19,0 17,7 18,6 92,0 3,7 238 - 12,8 165 1.010,3
14:26 18,9 17,7 18,5 93,0 3,8 218 - 12,8 121 1.010,2
14:25 18,9 17,7 18,5 93,0 4,2 209 - 12,8 133 1.010,3
14:24 18,9 17,7 18,5 93,0 4,4 222 - 12,8 143 1.010,2
14:23 18,9 17,7 18,5 93,0 4,5 230 - 12,8 148 1.010,2
14:22 18,8 17,7 18,5 93,0 4,4 197 - 12,8 151 1.010,2
14:21 18,8 17,6 18,4 93,0 4,4 223 - 12,8 167 1.010,1
14:20 18,8 17,6 18,4 93,0 4,3 206 - 12,8 187 1.010,2
14:19 18,8 17,6 18,4 93,0 4,1 215 - 12,8 205 1.010,1
14:18 18,8 17,6 18,4 93,0 4,2 219 - 12,8 211 1.010,1
14:17 18,7 17,5 18,3 93,0 4,4 213 - 12,8 208 1.010,1
14:16 18,7 17,6 18,4 93,6 4,4 215 - 12,8 206 1.010,2
14:15 18,7 17,7 18,3 94,0 4,3 196 - 12,8 204 1.010,2
14:14 18,7 17,7 18,3 94,0 4,2 195 - 12,8 203 1.010,1
14:13 18,7 17,7 18,3 94,0 4,1 222 - 12,8 215 1.010,1
14:12 18,6 17,6 18,3 94,0 4,2 226 - 12,8 240 1.010,1
14:11 18,7 17,7 18,3 94,0 4,5 227 - 12,8 270 1.010,1
14:10 18,7 17,7 18,3 94,0 4,5 235 - 12,8 273 1.010,0
14:09 18,7 17,7 18,3 94,0 4,3 246 - 12,8 255 1.010,0
14:08 18,7 17,7 18,3 94,0 4,1 232 - 12,8 242 1.010,0
14:07 18,7 17,7 18,3 94,0 4,2 230 - 12,8 234 1.010,0
14:06 18,7 17,7 18,3 94,0 3,7 248 - 12,8 231 1.010,0
14:05 18,7 17,7 18,4 94,0 3,5 200 - 12,8 224 1.010,0
14:04 18,7 17,7 18,3 94,0 3,7 226 - 12,8 213 1.010,1
14:03 18,7 17,7 18,4 94,0 4,0 219 - 12,8 212 1.010,1
14:02 18,7 17,7 18,4 94,1 4,1 211 - 12,8 216 1.010,0
14:01 18,7 17,9 18,4 95,0 3,9 234 - 12,8 225 1.010,0
14:00 18,7 17,8 18,4 95,0 4,1 256 - 12,8 239 1.010,0
 
13:59 18,7 17,8 18,4 95,0 4,0 242 - 12,8 259 1.010,0
13:58 18,7 17,8 18,4 95,0 3,9 222 - 12,8 281 1.010,0
13:57 18,7 17,8 18,4 95,0 3,6 222 - 12,8 286 1.010,0
13:56 18,7 17,8 18,4 95,0 3,6 192 - 12,8 285 1.010,0
13:55 18,7 17,8 18,4 95,0 3,9 231 - 12,8 296 1.010,0
13:54 18,7 17,9 18,4 95,0 4,4 220 - 12,8 301 1.010,0
13:53 18,7 17,9 18,4 95,0 4,5 220 - 12,8 296 1.010,0
13:52 18,7 17,9 18,4 95,0 4,1 212 - 12,8 296 1.010,0
13:51 18,6 17,8 18,4 95,0 3,4 242 - 12,8 315 1.010,0
13:50 18,6 17,7 18,3 95,0 3,2 249 - 12,8 385 1.010,0
13:49 18,5 17,7 18,2 95,0 3,4 224 - 12,8 434 1.010,0
13:48 18,4 17,6 18,2 95,0 4,0 252 - 12,8 434 1.010,0
13:47 18,4 17,6 18,1 95,0 4,3 224 - 12,8 434 1.009,9
13:46 18,4 17,5 18,1 95,0 4,4 243 - 12,8 339 1.009,9
13:45 18,4 17,6 18,1 95,0 4,3 236 - 12,8 301 1.009,9
13:44 18,4 17,6 18,1 95,0 4,2 264 - 12,8 334 1.009,9
13:43 18,4 17,5 18,1 95,0 3,9 242 - 12,8 310 1.009,9
13:42 18,3 17,4 18,0 95,0 3,8 238 - 12,8 252 1.009,9
13:41 18,3 17,4 18,0 95,0 4,1 222 - 12,8 240 1.009,9
13:40 18,3 17,4 18,0 95,0 4,3 233 - 12,8 269 1.009,9
13:39 18,3 17,5 18,0 95,0 4,0 247 - 12,8 404 1.009,8
13:38 18,3 17,5 18,0 95,0 3,7 235 - 12,8 568 1.009,8
13:37 18,3 17,4 18,0 95,0 3,9 210 - 12,8 498 1.009,8
13:36 18,2 17,4 17,9 95,0 3,8 243 - 12,8 461 1.009,8
13:35 18,2 17,4 17,9 95,0 3,7 236 - 12,8 454 1.009,8
13:34 18,2 17,3 17,9 95,0 3,6 222 - 12,8 433 1.009,8
13:33 18,1 17,3 17,8 95,0 3,6 235 - 12,8 379 1.009,8
13:32 18,1 17,2 17,8 95,0 3,3 246 - 12,8 358 1.009,8
13:31 18,1 17,2 17,8 95,0 3,4 213 - 12,8 340 1.009,8
13:30 18,1 17,2 17,8 95,0 3,8 241 - 12,8 360 1.009,7
13:29 18,0 17,2 17,8 95,0 3,8 213 - 12,8 303 1.009,7
13:28 18,0 17,2 17,8 95,0 3,7 263 - 12,8 294 1.009,7
13:27 18,1 17,2 17,8 95,0 3,9 253 - 12,8 308 1.009,7
13:26 18,1 17,2 17,8 95,0 4,0 259 - 12,8 335 1.009,6
13:25 18,1 17,2 17,8 95,0 3,8 254 - 12,8 330 1.009,6
13:24 18,1 17,2 17,8 95,0 3,6 240 - 12,8 312 1.009,6
13:23 18,0 17,2 17,8 95,0 3,7 249 - 12,8 302 1.009,6
13:22 18,0 17,2 17,7 95,0 3,8 249 - 12,8 303 1.009,6
13:21 18,0 17,1 17,7 95,0 4,0 269 - 12,8 313 1.009,6
13:20 17,9 17,1 17,7 95,0 4,1 247 - 12,8 323 1.009,6
13:19 17,9 17,1 17,7 95,0 4,3 253 - 12,8 331 1.009,5
13:18 17,9 17,1 17,7 95,0 4,4 261 - 12,8 344 1.009,5
13:17 17,9 17,1 17,7 95,0 3,8 261 - 12,8 345 1.009,5
13:16 17,9 17,1 17,7 95,0 3,6 211 - 12,8 336 1.009,5
13:15 18,0 17,1 17,7 95,0 3,7 262 - 12,8 327 1.009,5
13:14 18,0 17,2 17,7 95,0 4,0 259 - 12,8 322 1.009,5
13:13 18,0 17,2 17,7 95,0 3,8 247 - 12,8 323 1.009,5
13:12 17,9 17,1 17,7 95,0 3,5 274 - 12,8 334 1.009,4
13:11 17,9 17,1 17,7 95,0 3,5 259 - 12,8 324 1.009,4
13:10 17,9 17,1 17,6 95,0 3,6 271 - 12,8 325 1.009,4
13:09 17,9 17,0 17,6 95,0 3,6 259 - 12,8 350 1.009,4
13:08 17,8 17,0 17,5 95,0 3,4 271 - 12,8 353 1.009,5
13:07 17,8 17,0 17,5 95,0 3,4 260 - 12,8 339 1.009,4
13:06 17,8 17,0 17,5 95,0 3,6 249 - 12,8 306 1.009,5
13:05 17,8 17,0 17,6 95,0 3,7 249 - 12,8 270 1.009,5
13:04 17,9 17,1 17,6 95,0 3,8 236 - 12,8 251 1.009,5
13:03 18,0 17,3 17,7 96,0 3,7 267 - 12,8 246 1.009,5
13:02 17,9 17,2 17,7 95,8 3,5 260 - 12,8 249 1.009,4
13:01 17,9 17,1 17,6 95,0 3,6 251 - 12,8 254 1.009,4
13:00 17,8 17,0 17,6 95,0 4,0 226 - 12,8 268 1.009,4
 
12:59 17,8 17,0 17,6 95,0 4,4 251 - 12,8 265 1.009,4
12:58 17,8 17,0 17,6 95,0 4,4 257 - 12,8 243 1.009,3
12:57 17,9 17,1 17,6 95,2 4,3 233 - 12,8 237 1.009,4
12:56 17,9 17,2 17,7 95,7 4,2 225 - 12,8 222 1.009,4
12:55 17,9 17,1 17,6 95,5 3,8 213 - 12,8 214 1.009,4
12:54 17,9 17,2 17,7 96,0 3,7 252 - 12,8 218 1.009,4
12:53 17,9 17,1 17,6 95,3 3,8 246 - 12,8 222 1.009,4
12:52 17,8 17,0 17,6 95,0 3,8 260 - 12,8 217 1.009,3
12:51 17,8 17,0 17,5 95,0 3,7 259 - 12,8 216 1.009,4
12:50 17,8 16,9 17,5 95,0 3,7 257 - 12,8 206 1.009,4
12:49 17,8 17,0 17,5 95,0 3,7 271 - 12,8 184 1.009,4
12:48 17,8 17,0 17,5 95,0 3,7 274 - 12,8 162 1.009,3
12:47 17,8 17,0 17,5 95,0 3,8 267 - 12,8 174 1.009,3
12:46 17,8 17,0 17,5 95,0 3,9 274 - 12,8 177 1.009,3
12:45 17,8 17,0 17,5 95,0 4,0 265 - 12,8 180 1.009,3
12:44 17,8 16,9 17,5 95,0 4,1 255 - 12,8 164 1.009,3
12:43 17,7 16,9 17,5 95,0 4,2 256 - 12,8 159 1.009,3
12:42 17,7 16,9 17,4 95,0 4,2 249 - 12,8 166 1.009,3
12:41 17,7 16,9 17,4 95,0 4,2 248 - 12,8 143 1.009,2
12:40 17,7 16,8 17,4 95,0 4,1 248 - 12,8 144 1.009,3
12:39 17,7 16,8 17,4 95,0 4,2 265 - 12,8 158 1.009,2
12:38 17,6 16,8 17,4 95,0 4,4 255 - 12,8 171 1.009,2
12:37 17,7 16,9 17,4 95,0 4,5 260 - 12,8 178 1.009,3
12:35 17,7 16,9 17,4 95,0 4,2 258 - 12,8 172 1.009,3
12:34 17,7 16,8 17,4 95,0 3,9 265 - 12,8 172 1.009,2
12:33 17,7 16,8 17,4 95,0 3,8 261 - 12,8 173 1.009,3
12:32 17,7 16,8 17,4 95,0 3,7 244 - 12,8 170 1.009,2
12:31 17,7 16,8 17,4 95,0 3,7 249 - 12,8 160 1.009,2
12:30 17,7 16,8 17,4 95,0 3,7 249 - 12,8 120 1.009,2
12:29 17,6 16,8 17,4 95,0 3,6 242 - 12,8 114 1.009,2
12:28 17,6 16,8 17,3 95,0 3,7 242 - 12,8 101 1.009,2
12:27 17,6 16,8 17,3 95,0 3,8 252 - 12,8 98 1.009,2
12:26 17,6 16,8 17,3 95,0 3,7 285 - 12,8 98 1.009,2
12:25 17,6 16,8 17,3 95,0 3,4 224 - 12,8 95 1.009,2
12:24 17,6 16,8 17,3 95,0 3,3 238 - 12,8 93 1.009,2
12:23 17,6 16,8 17,3 95,0 2,9 234 - 12,8 92 1.009,2
12:22 17,6 16,8 17,3 95,0 2,7 242 - 12,8 97 1.009,2
12:21 17,6 16,7 17,3 95,0 2,6 249 - 12,8 118 1.009,2
12:20 17,6 16,7 17,3 95,0 2,7 236 - 12,8 132 1.009,1
12:19 17,6 16,7 17,3 95,0 3,0 253 - 12,8 132 1.009,1
12:18 17,6 16,7 17,3 95,0 3,3 259 - 12,6 126 1.009,1
12:17 17,6 16,8 17,3 95,0 3,3 256 - 12,6 121 1.009,1
12:16 17,6 16,8 17,3 95,0 3,1 255 - 12,6 120 1.009,1
12:15 17,6 16,8 17,3 95,0 3,1 257 - 12,6 123 1.009,1
12:14 17,6 16,7 17,3 95,0 3,2 262 - 12,6 136 1.009,1
12:13 17,6 16,7 17,3 95,0 3,4 257 - 12,6 140 1.009,0
12:12 17,6 16,7 17,3 95,0 3,6 265 - 12,6 146 1.009,0
12:11 17,6 16,8 17,3 95,0 3,6 257 - 12,6 157 1.009,0
12:10 17,6 16,8 17,4 95,0 3,8 226 - 12,6 171 1.008,9
12:09 17,6 16,8 17,4 95,0 3,8 260 - 12,6 179 1.008,9
12:08 17,6 16,8 17,3 95,0 4,0 259 - 12,6 188 1.008,9
12:07 17,6 16,8 17,3 95,0 4,0 258 - 12,6 188 1.008,9
12:06 17,6 16,8 17,3 95,0 3,9 238 - 12,6 181 1.008,9
12:05 17,6 16,8 17,3 95,0 3,8 262 - 12,6 203 1.008,9
12:04 17,6 16,8 17,3 95,0 3,9 255 - 12,6 234 1.008,9
12:03 17,6 16,8 17,3 95,0 4,2 240 - 12,6 242 1.008,9
12:02 17,6 16,7 17,3 95,0 4,3 257 - 12,6 228 1.008,9
12:01 17,6 16,8 17,3 95,0 4,4 253 - 12,6 227 1.008,9
12:00 17,6 16,8 17,3 95,0 4,5 264 - 12,6 238 1.008,9
 
11:59 17,6 16,8 17,3 95,0 4,6 259 - 12,6 208 1.008,9
11:58 17,6 16,7 17,3 95,0 4,4 253 - 12,6 176 1.008,9
11:57 17,6 16,7 17,3 95,0 4,4 219 - 12,6 165 1.008,9
11:56 17,6 16,7 17,3 95,0 4,3 263 - 12,6 165 1.008,9
11:55 17,5 16,7 17,3 95,0 4,4 270 - 12,6 161 1.008,9
11:54 17,5 16,6 17,2 95,0 4,2 263 - 12,6 151 1.008,9
11:53 17,5 16,7 17,2 95,0 3,8 279 - 12,6 142 1.008,9
11:52 17,4 16,6 17,2 95,0 3,8 216 - 12,6 138 1.008,8
11:51 17,5 16,6 17,2 95,0 4,4 240 - 12,6 152 1.008,8
11:50 17,5 16,7 17,2 95,0 4,5 218 - 12,6 172 1.008,8
11:49 17,5 16,7 17,2 95,0 4,5 265 - 12,6 190 1.008,8
11:48 17,5 16,7 17,2 95,0 4,7 259 - 12,6 183 1.008,8
11:47 17,5 16,7 17,3 95,0 4,7 250 - 12,6 168 1.008,8
11:46 17,6 16,7 17,3 95,0 4,6 283 - 12,6 118 1.008,8
11:45 17,5 16,7 17,3 95,0 4,9 235 - 12,6 90 1.008,7
11:44 17,5 16,6 17,2 95,0 5,3 256 - 12,6 97 1.008,7
11:43 17,4 16,6 17,2 95,0 5,6 245 - 12,6 107 1.008,7
11:42 17,4 16,6 17,2 95,0 5,7 265 - 12,6 118 1.008,7
11:41 17,5 16,6 17,2 95,0 5,1 252 - 12,6 114 1.008,7
11:40 17,5 16,7 17,2 95,0 4,5 217 - 12,6 112 1.008,8
11:39 17,5 16,6 17,2 95,0 4,0 240 - 12,6 123 1.008,8
11:38 17,5 16,7 17,2 95,0 4,0 267 - 12,6 143 1.008,7
11:37 17,5 16,7 17,2 95,0 4,2 222 - 12,6 154 1.008,7
11:36 17,5 16,7 17,2 95,0 4,4 257 - 12,4 160 1.008,7
11:35 17,5 16,7 17,2 95,0 4,5 263 - 12,4 167 1.008,7
11:34 17,5 16,7 17,2 95,0 4,4 229 - 12,4 169 1.008,7
11:33 17,5 16,7 17,2 95,0 4,8 254 - 12,4 164 1.008,6
11:32 17,5 16,7 17,3 95,0 4,9 232 - 12,4 160 1.008,6
11:31 17,5 16,7 17,2 95,0 4,6 251 - 12,4 160 1.008,6
11:30 17,5 16,6 17,2 95,0 4,3 279 - 12,4 161 1.008,6
11:29 17,4 16,6 17,2 95,0 3,6 271 - 12,4 166 1.008,6
11:28 17,4 16,6 17,2 95,0 3,8 199 - 12,4 170 1.008,6
11:27 17,4 16,6 17,2 95,0 4,2 268 - 12,4 161 1.008,6
11:26 17,5 16,6 17,2 95,0 4,6 255 - 12,4 157 1.008,6
11:25 17,5 16,7 17,2 95,0 4,4 230 - 12,4 148 1.008,6
11:24 17,5 16,7 17,2 95,0 4,3 263 - 12,4 141 1.008,6
11:23 17,5 16,7 17,3 95,0 4,5 247 - 12,4 133 1.008,6
11:22 17,6 16,7 17,3 95,0 4,7 249 - 12,4 124 1.008,5
11:21 17,6 16,8 17,3 95,0 4,7 248 - 12,4 117 1.008,5
11:20 17,6 16,8 17,3 95,0 4,4 222 - 12,4 115 1.008,6
11:19 17,6 16,8 17,3 95,0 3,9 286 - 12,4 119 1.008,5
11:18 17,6 16,7 17,3 95,0 4,2 192 - 12,4 121 1.008,5
11:17 17,6 16,8 17,3 95,0 5,2 263 - 12,4 121 1.008,5
11:16 17,6 16,8 17,4 95,0 5,1 247 - 12,4 119 1.008,5
11:15 17,6 16,8 17,3 95,0 4,6 183 - 12,4 110 1.008,5
11:14 17,6 16,8 17,3 95,0 4,6 263 - 12,4 100 1.008,4
11:13 17,6 16,8 17,3 95,0 5,2 253 - 12,4 101 1.008,4
11:12 17,5 16,7 17,3 95,0 5,1 266 - 12,4 104 1.008,4
11:11 17,5 16,7 17,3 95,0 5,2 260 - 12,4 108 1.008,4
11:10 17,6 16,7 17,3 95,0 5,2 250 - 12,4 117 1.008,3
11:09 17,5 16,7 17,2 95,0 4,9 258 - 12,4 127 1.008,4
11:08 17,5 16,6 17,2 95,0 4,7 259 - 12,4 122 1.008,4
11:07 17,4 16,6 17,2 95,0 4,8 273 - 12,4 114 1.008,3
11:06 17,4 16,6 17,2 95,0 5,0 265 - 12,4 118 1.008,3
11:05 17,4 16,6 17,2 95,0 5,2 261 - 12,4 131 1.008,3
11:04 17,5 16,6 17,2 95,0 5,4 257 - 12,2 151 1.008,3
11:03 17,5 16,6 17,2 95,0 5,5 247 - 12,2 168 1.008,3
11:02 17,5 16,7 17,2 95,0 5,5 264 - 12,2 172 1.008,3
11:01 17,5 16,6 17,2 95,0 5,6 269 - 12,2 171 1.008,3
11:00 17,4 16,6 17,2 95,0 5,6 260 - 12,2 185 1.008,3
 
10:59 17,4 16,6 17,2 95,0 5,7 251 - 12,2 209 1.008,3
10:58 17,4 16,6 17,2 95,0 5,9 277 - 12,2 212 1.008,3
10:57 17,5 16,7 17,2 95,0 6,2 251 - 12,2 197 1.008,2
10:56 17,6 16,8 17,3 95,0 6,4 269 - 12,2 160 1.008,2
10:55 17,6 16,8 17,3 95,0 6,0 270 - 12,2 120 1.008,3
10:54 17,6 16,8 17,3 95,0 5,8 230 - 12,2 84 1.008,3
10:53 17,6 16,8 17,3 95,0 6,0 241 - 12,2 73 1.008,3
10:52 17,6 16,8 17,3 95,0 6,1 242 - 12,2 76 1.008,3
10:51 17,7 16,8 17,4 95,0 6,0 229 - 12,2 71 1.008,3
10:50 17,7 16,9 17,4 95,0 5,7 269 - 12,2 74 1.008,2
10:49 17,7 16,9 17,4 95,0 5,5 255 - 12,2 71 1.008,2
10:48 17,6 16,8 17,4 95,0 5,2 274 - 12,2 70 1.008,2
10:47 17,6 16,8 17,4 95,0 5,3 245 - 12,2 86 1.008,2
10:46 17,7 16,8 17,4 95,0 5,5 258 - 12,2 94 1.008,1
10:45 17,7 16,9 17,4 95,0 5,5 244 - 12,2 93 1.008,1
10:44 17,8 16,9 17,5 95,0 5,3 245 - 12,2 71 1.008,1
10:43 17,8 16,9 17,5 95,0 4,9 223 - 12,2 47 1.008,1
10:42 17,7 16,9 17,4 95,0 4,5 264 - 12,2 47 1.008,2
10:41 17,7 16,9 17,4 95,0 4,5 218 - 12,2 54 1.008,2
10:40 17,7 16,9 17,4 95,0 4,6 232 - 12,2 54 1.008,1
10:39 17,7 16,9 17,4 95,0 4,4 188 - 12,2 53 1.008,1
10:38 17,7 16,9 17,4 95,0 4,2 253 - 12,2 45 1.008,1
10:37 17,7 16,9 17,5 95,0 3,6 180 - 12,2 40 1.008,1
10:36 17,7 16,9 17,5 95,0 3,5 276 - 12,2 37 1.008,1
10:35 17,7 16,9 17,5 95,0 4,5 267 - 12,0 38 1.008,1
10:34 17,7 16,9 17,4 95,0 4,9 225 - 12,0 46 1.008,0
10:33 17,8 16,9 17,5 95,0 5,3 239 - 11,8 54 1.008,0
10:32 17,8 16,9 17,5 95,0 5,4 214 - 11,8 55 1.008,0
10:31 17,8 16,9 17,5 95,0 5,3 240 - 11,8 63 1.008,0
10:30 17,8 16,9 17,5 95,0 5,4 228 - 11,8 79 1.008,0
10:29 17,8 17,0 17,5 95,0 5,6 230 - 11,8 79 1.008,0
10:28 17,8 17,0 17,6 95,0 5,5 235 - 11,8 77 1.008,0
10:27 17,9 17,1 17,6 95,0 5,5 213 - 11,8 71 1.008,0
10:26 18,0 17,1 17,7 95,0 5,1 207 - 11,8 73 1.008,0
10:25 18,0 17,2 17,7 95,0 4,3 235 - 11,8 61 1.008,0
10:24 18,0 17,2 17,7 95,0 3,4 229 - 11,6 45 1.008,0
10:23 18,0 17,2 17,8 95,0 3,1 200 - 11,4 45 1.008,0
10:22 18,0 17,2 17,7 95,0 3,3 202 - 11,4 55 1.008,0
10:21 18,0 17,2 17,7 95,0 4,0 244 - 11,4 44 1.007,9
10:20 18,0 17,2 17,7 95,0 4,6 213 - 11,4 38 1.007,9
10:19 18,0 17,2 17,7 95,0 4,7 219 - 11,4 38 1.007,9
10:18 18,0 17,2 17,7 95,0 4,5 245 - 11,4 40 1.007,8
10:17 18,0 17,1 17,7 95,0 4,5 248 - 11,4 52 1.007,9
10:16 17,9 17,1 17,6 95,0 4,3 268 - 11,4 69 1.007,9
10:15 17,9 17,0 17,6 95,0 4,0 230 - 11,4 70 1.007,9
10:14 17,8 17,0 17,6 95,0 4,1 284 - 11,4 61 1.007,8
10:13 17,8 17,0 17,6 95,0 4,4 247 - 11,4 59 1.007,9
10:12 17,8 17,0 17,5 95,0 4,8 250 - 11,4 65 1.007,9
10:11 17,8 17,0 17,5 95,0 4,9 233 - 11,4 67 1.007,8
10:10 17,8 16,9 17,5 95,0 4,8 259 - 11,4 69 1.007,8
10:09 17,8 16,9 17,5 95,0 4,6 240 - 11,4 67 1.007,8
10:08 17,7 16,9 17,5 95,0 4,7 250 - 11,4 66 1.007,8
10:07 17,7 16,9 17,4 95,0 4,9 255 - 11,4 60 1.007,7
10:06 17,7 16,9 17,4 95,0 5,4 219 - 11,4 51 1.007,7
10:05 17,7 16,9 17,4 95,0 5,5 245 - 11,4 47 1.007,7
10:04 17,7 16,9 17,4 95,0 5,5 233 - 11,4 44 1.007,7
10:03 17,7 16,9 17,4 95,0 5,5 234 - 11,4 46 1.007,7
10:02 17,7 16,9 17,5 95,0 5,5 238 - 11,4 48 1.007,7
10:01 17,8 16,9 17,5 95,0 5,4 241 - 11,4 48 1.007,7
10:00 17,8 16,9 17,5 95,0 5,4 236 - 11,4 44 1.007,7
 
09:59 17,8 16,9 17,5 95,0 5,3 240 - 11,4 36 1.007,7
09:58 17,7 16,9 17,4 95,0 5,2 236 - 11,4 33 1.007,7
09:57 17,7 16,9 17,4 95,0 4,9 239 - 11,4 33 1.007,7
09:56 17,7 16,9 17,4 95,0 4,1 218 - 11,4 38 1.007,7
09:55 17,7 16,9 17,4 95,0 3,7 151 - 11,4 47 1.007,7
09:54 17,7 16,9 17,4 95,0 3,9 247 - 11,4 50 1.007,6
09:53 17,7 16,9 17,4 95,0 5,0 232 - 11,4 49 1.007,6
09:52 17,7 16,9 17,4 95,0 4,5 234 - 11,4 50 1.007,6
09:51 17,7 16,9 17,4 95,0 4,2 190 - 11,4 41 1.007,6
09:50 17,7 16,9 17,4 95,0 4,5 236 - 11,4 39 1.007,5
09:49 17,7 16,8 17,4 95,0 4,7 205 - 11,4 40 1.007,6
09:48 17,7 16,8 17,4 95,0 4,4 197 - 11,4 44 1.007,6
09:47 17,7 16,8 17,4 95,0 4,0 231 - 11,4 52 1.007,6
09:46 17,7 16,9 17,4 95,0 3,8 223 - 11,4 53 1.007,5
09:45 17,7 16,9 17,4 95,0 3,7 209 - 11,4 43 1.007,5
09:44 17,7 16,9 17,5 95,0 3,9 224 - 11,2 27 1.007,5
09:43 17,7 16,9 17,5 95,0 3,7 224 - 11,2 17 1.007,5
09:42 17,8 16,9 17,5 95,0 3,3 234 - 11,2 18 1.007,5
09:41 17,8 16,9 17,5 95,0 2,8 217 - 11,0 18 1.007,5
09:40 17,7 16,9 17,5 95,0 2,5 237 - 11,0 14 1.007,5
09:39 17,8 16,9 17,5 95,0 2,3 222 - 11,0 12 1.007,5
09:38 17,8 16,9 17,5 95,0 2,7 236 - 11,0 14 1.007,5
09:37 17,8 16,9 17,5 95,0 3,0 231 - 11,0 19 1.007,5
09:36 17,7 16,9 17,4 95,0 3,3 197 - 10,8 24 1.007,5
09:35 17,7 16,9 17,4 95,0 3,9 226 - 10,8 25 1.007,4
09:34 17,7 16,9 17,4 95,0 4,5 222 - 10,8 27 1.007,4
09:33 17,7 16,9 17,5 95,0 4,5 223 - 10,6 35 1.007,5
09:32 17,7 16,9 17,5 95,0 4,3 206 - 10,6 39 1.007,5
09:31 17,7 16,9 17,4 95,0 4,4 207 - 10,6 30 1.007,4
09:30 17,7 16,9 17,4 95,0 4,4 219 - 10,6 28 1.007,3
09:29 17,7 16,8 17,4 94,3 4,5 228 - 10,6 33 1.007,3
09:28 17,7 16,7 17,4 94,0 4,8 229 - 10,4 34 1.007,3
09:27 17,7 16,7 17,4 94,0 5,0 211 - 10,4 38 1.007,3
09:26 17,7 16,7 17,4 94,0 4,8 210 - 10,4 39 1.007,3
09:25 17,7 16,7 17,4 94,0 4,5 232 - 10,4 39 1.007,3
09:24 17,7 16,7 17,4 94,0 4,7 187 - 10,4 41 1.007,3
09:23 17,7 16,7 17,4 94,0 5,0 180 - 10,4 47 1.007,3
09:22 17,7 16,7 17,4 94,0 4,1 193 - 10,4 56 1.007,3
09:21 17,7 16,7 17,4 94,0 3,8 250 - 10,4 63 1.007,2
09:20 17,7 16,7 17,4 94,0 3,7 210 - 10,4 59 1.007,2
09:19 17,7 16,7 17,4 94,0 3,5 226 - 10,4 53 1.007,2
09:18 17,7 16,7 17,4 94,0 3,1 219 - 10,4 45 1.007,2
09:17 17,7 16,7 17,4 94,0 2,9 236 - 10,4 38 1.007,2
09:16 17,7 16,7 17,4 94,0 3,1 201 - 10,4 32 1.007,2
09:15 17,8 16,8 17,4 94,0 3,5 227 - 10,4 31 1.007,1
09:14 17,7 16,7 17,4 94,0 4,3 172 - 10,4 29 1.007,1
09:13 17,8 16,8 17,4 94,0 4,5 215 - 10,4 29 1.007,1
09:12 17,7 16,7 17,4 94,0 4,5 224 - 10,4 34 1.007,1
09:11 17,7 16,7 17,4 94,0 4,2 215 - 10,4 28 1.007,1
09:10 17,7 16,7 17,4 94,0 4,0 240 - 10,4 25 1.007,1
09:09 17,7 16,7 17,4 94,0 3,4 234 - 10,4 26 1.007,1
09:08 17,7 16,7 17,4 94,0 3,2 211 - 10,4 25 1.007,1
09:07 17,7 16,7 17,4 94,0 3,6 215 - 10,4 22 1.007,1
09:06 17,7 16,7 17,4 94,0 3,5 210 - 10,4 27 1.007,1
09:05 17,7 16,7 17,3 94,0 3,8 168 - 10,4 28 1.007,0
09:04 17,7 16,7 17,3 94,0 4,4 209 - 10,4 33 1.007,0
09:03 17,7 16,7 17,3 94,0 5,2 202 - 10,4 38 1.007,0
09:02 17,7 16,7 17,4 94,0 5,1 212 - 10,4 37 1.007,1
09:01 17,7 16,7 17,4 94,0 4,5 213 - 10,4 32 1.007,1
09:00 17,7 16,7 17,4 94,0 4,4 240 - 10,4 28 1.007,0
 
08:59 17,7 16,7 17,4 94,0 4,6 217 - 10,4 25 1.007,0
08:58 17,8 16,8 17,4 94,0 4,6 219 - 10,4 25 1.007,0
08:57 17,8 16,8 17,4 94,0 4,4 229 - 10,4 26 1.007,0
08:56 17,8 16,8 17,4 94,0 4,1 205 - 10,4 25 1.007,0
08:55 17,8 16,8 17,4 94,0 3,9 211 - 10,4 21 1.006,9
08:54 17,8 16,8 17,4 94,0 4,2 211 - 10,4 19 1.006,9
08:53 17,8 16,8 17,4 94,0 4,8 236 - 10,4 12 1.006,9
08:52 17,8 16,8 17,4 94,0 4,5 225 - 10,4 13 1.006,9
08:51 17,8 16,8 17,5 94,0 4,0 182 - 10,2 14 1.006,9
08:50 17,8 16,8 17,4 94,0 3,9 240 - 10,2 13 1.006,9
08:49 17,8 16,8 17,5 94,0 4,3 190 - 10,2 12 1.006,9
08:48 17,8 16,8 17,4 94,0 4,3 219 - 10,2 16 1.006,9
08:47 17,8 16,8 17,4 94,0 3,9 167 - 10,2 15 1.006,9
08:46 17,8 16,8 17,4 94,0 4,0 187 - 10,2 22 1.006,8
08:45 17,8 16,8 17,4 94,0 3,8 187 - 10,2 30 1.006,8
08:44 17,8 16,8 17,5 94,0 3,5 203 - 10,2 30 1.006,8
08:43 17,8 16,8 17,4 94,0 3,0 210 - 10,2 28 1.006,8
08:42 17,8 16,8 17,4 94,0 3,2 242 - 10,2 19 1.006,8
08:41 17,8 16,8 17,4 94,0 3,6 224 - 10,2 20 1.006,8
08:40 17,8 16,8 17,4 94,0 3,8 221 - 10,2 27 1.006,8
08:39 17,8 16,8 17,4 94,0 3,5 229 - 10,2 48 1.006,7
08:38 17,8 16,8 17,4 94,0 3,3 220 - 10,2 55 1.006,8
08:37 17,7 16,7 17,4 94,0 3,3 208 - 10,2 43 1.006,8
08:36 17,7 16,7 17,4 94,0 3,4 205 - 10,2 44 1.006,7
08:35 17,7 16,7 17,4 94,0 3,5 214 - 10,2 75 1.006,7
08:34 17,7 16,7 17,4 94,0 3,7 211 - 10,2 61 1.006,7
08:33 17,7 16,7 17,4 94,0 3,8 234 - 10,2 52 1.006,7
08:32 17,7 16,7 17,4 94,0 3,8 213 - 10,2 38 1.006,6
08:31 17,7 16,7 17,4 94,0 3,8 214 - 10,2 33 1.006,6
08:30 17,7 16,7 17,4 94,0 3,8 209 - 10,2 27 1.006,6
08:29 17,7 16,7 17,4 94,0 3,7 197 - 10,2 19 1.006,6
08:28 17,7 16,7 17,4 94,0 3,5 236 - 10,2 16 1.006,6
08:27 17,7 16,7 17,4 94,0 3,6 226 - 10,2 14 1.006,6
08:26 17,7 16,7 17,4 94,0 3,4 241 - 10,2 22 1.006,6
08:25 17,7 16,7 17,4 94,0 3,7 196 - 10,2 26 1.006,6
08:24 17,7 16,7 17,4 94,0 4,0 199 - 10,2 24 1.006,5
08:23 17,7 16,7 17,4 94,0 4,2 194 - 10,2 17 1.006,5
08:22 17,7 16,7 17,4 94,0 4,3 205 - 10,2 21 1.006,5
08:21 17,7 16,7 17,4 94,0 4,3 183 - 10,2 31 1.006,5
08:20 17,7 16,7 17,4 94,0 4,1 214 - 10,2 39 1.006,4
08:19 17,7 16,7 17,4 94,0 4,0 187 - 10,2 24 1.006,4
08:18 17,7 16,7 17,4 94,0 4,2 211 - 10,2 15 1.006,4
08:17 17,7 16,7 17,4 94,0 4,3 181 - 10,2 21 1.006,4
08:16 17,7 16,7 17,4 94,0 4,4 169 - 10,2 25 1.006,4
08:15 17,7 16,7 17,4 94,0 4,5 203 - 10,2 23 1.006,4
08:14 17,7 16,7 17,4 94,0 4,7 191 - 10,2 20 1.006,4
08:13 17,7 16,7 17,4 94,0 4,7 230 - 10,2 15 1.006,4
08:12 17,7 16,7 17,4 94,0 4,5 222 - 10,2 14 1.006,4
08:11 17,7 16,7 17,4 94,0 4,4 200 - 10,2 13 1.006,4
08:10 17,7 16,7 17,4 94,0 4,5 213 - 10,2 15 1.006,3
08:09 17,7 16,7 17,4 94,0 4,7 210 - 10,2 23 1.006,3
08:08 17,7 16,7 17,4 94,0 4,9 188 - 10,2 33 1.006,3
08:07 17,7 16,7 17,4 94,0 4,8 215 - 10,2 35 1.006,3
08:06 17,7 16,7 17,4 94,0 4,1 187 - 10,2 33 1.006,2
08:05 17,7 16,7 17,4 94,0 3,7 206 - 10,2 39 1.006,2
08:04 17,7 16,7 17,4 94,0 3,7 183 - 10,2 41 1.006,2
08:03 17,7 16,7 17,4 94,0 4,2 244 - 10,2 40 1.006,2
08:02 17,7 16,7 17,4 94,0 4,5 226 - 10,2 38 1.006,2
08:01 17,7 16,7 17,4 94,0 4,2 207 - 10,2 34 1.006,2
08:00 17,7 16,7 17,4 94,0 4,2 244 - 10,2 24 1.006,2
 
07:59 17,7 16,7 17,3 94,0 4,5 220 - 10,2 14 1.006,2
07:58 17,7 16,7 17,3 94,0 4,8 217 - 10,2 10 1.006,2
07:57 17,7 16,7 17,3 94,0 4,3 222 - 10,2 8 1.006,1
07:56 17,7 16,7 17,3 94,0 3,6 176 - 10,2 7 1.006,2
07:55 17,7 16,7 17,3 94,0 3,4 211 - 10,2 7 1.006,2
07:54 17,7 16,7 17,3 94,0 4,0 228 - 10,2 9 1.006,1
07:53 17,7 16,7 17,3 94,0 4,4 202 - 10,2 16 1.006,1
07:52 17,7 16,7 17,3 94,0 4,4 222 - 10,2 20 1.006,1
07:51 17,7 16,7 17,3 94,0 4,0 221 - 10,2 19 1.006,1
07:50 17,7 16,7 17,3 94,0 3,8 197 - 10,2 12 1.006,1
07:49 17,6 16,6 17,3 94,0 4,1 202 - 10,2 11 1.006,1
07:48 17,6 16,6 17,3 94,0 4,5 208 - 10,2 13 1.006,0
07:47 17,6 16,6 17,3 94,0 4,4 192 - 10,2 16 1.006,0
07:46 17,6 16,6 17,3 94,0 4,7 187 - 10,2 11 1.006,0
07:45 17,6 16,6 17,3 94,0 5,0 200 - 10,2 7 1.006,0
07:44 17,6 16,6 17,3 94,0 4,7 214 - 10,2 7 1.006,0
07:43 17,6 16,6 17,3 94,0 3,7 188 - 10,2 5 1.005,9
07:42 17,6 16,6 17,3 94,0 3,4 184 - 10,2 5 1.005,9
07:41 17,6 16,6 17,3 94,0 3,7 209 - 10,2 5 1.005,9
07:40 17,6 16,6 17,3 94,0 4,2 221 - 10,2 2 1.005,9
07:39 17,6 16,6 17,3 94,0 5,0 236 - 10,2 4 1.005,9
07:38 17,6 16,6 17,3 94,0 5,5 222 - 10,2 5 1.005,9
07:37 17,6 16,6 17,3 94,0 5,3 230 - 10,0 7 1.005,9
07:36 17,6 16,6 17,3 94,0 4,8 219 - 9,8 8 1.005,9
07:35 17,6 16,6 17,3 94,0 4,8 208 - 9,8 5 1.005,8
07:34 17,6 16,6 17,3 94,0 5,0 213 - 9,8 6 1.005,8
07:33 17,6 16,6 17,3 94,0 4,9 195 - 9,8 7 1.005,8
07:32 17,6 16,6 17,3 94,0 4,6 186 - 9,8 7 1.005,8
07:31 17,6 16,6 17,3 94,0 4,1 234 - 9,8 13 1.005,8
07:30 17,6 16,6 17,3 94,0 3,8 161 - 9,8 17 1.005,8
07:29 17,6 16,6 17,3 94,0 3,7 197 - 9,8 10 1.005,7
07:28 17,6 16,6 17,3 94,0 3,9 227 - 9,8 5 1.005,7
07:27 17,6 16,6 17,3 94,0 4,3 199 - 9,8 1 1.005,7
07:26 17,6 16,6 17,3 94,0 4,7 206 - 9,8 2 1.005,7
07:25 17,6 16,6 17,3 94,0 5,0 176 - 9,8 5 1.005,7
07:24 17,6 16,6 17,3 94,0 5,2 203 - 9,8 7 1.005,7
07:23 17,6 16,6 17,3 94,0 5,5 228 - 9,8 6 1.005,6
07:22 17,7 16,7 17,3 94,0 5,4 202 - 9,8 5 1.005,6
07:21 17,7 16,7 17,3 94,0 5,2 192 - 9,8 7 1.005,6
07:20 17,7 16,7 17,3 94,0 5,2 201 - 9,8 5 1.005,6
07:19 17,6 16,6 17,3 94,0 5,0 210 - 9,6 5 1.005,5
07:18 17,7 16,7 17,3 94,0 4,6 169 - 9,6 3 1.005,6
07:17 17,6 16,6 17,3 94,0 4,2 219 - 9,6 0 1.005,6
07:16 17,6 16,6 17,3 94,0 4,0 211 - 9,4 0 1.005,5
07:15 17,7 16,7 17,3 94,0 3,5 196 - 9,4 4 1.005,6
07:14 17,7 16,7 17,3 94,0 3,4 152 - 9,2 5 1.005,6
07:13 17,6 16,6 17,3 94,0 3,6 229 - 9,2 5 1.005,6
07:12 17,6 16,6 17,3 94,0 4,5 219 - 9,2 5 1.005,5
07:11 17,6 16,6 17,3 94,0 4,7 251 - 9,0 2 1.005,5
07:10 17,6 16,6 17,3 94,0 4,2 243 - 9,0 0 1.005,5
07:09 17,6 16,6 17,3 94,0 4,2 174 - 9,0 0 1.005,4
07:08 17,6 16,6 17,3 94,0 4,4 222 - 9,0 0 1.005,4
07:07 17,6 16,6 17,3 94,0 3,9 197 - 9,0 0 1.005,5
07:06 17,6 16,6 17,3 94,0 3,5 152 - 8,8 0 1.005,4
07:05 17,6 16,6 17,3 94,0 3,8 244 - 8,8 0 1.005,4
07:04 17,6 16,6 17,3 94,0 4,2 224 - 8,8 0 1.005,4
07:03 17,6 16,6 17,3 94,0 4,0 186 - 8,8 0 1.005,4
07:02 17,7 16,7 17,3 94,0 4,2 203 - 8,8 0 1.005,3
07:01 17,7 16,7 17,3 94,0 4,3 197 - 8,8 0 1.005,4
07:00 17,7 16,7 17,3 94,0 4,5 190 - 8,8 2 1.005,4
 
06:59 17,6 16,6 17,3 94,0 4,5 180 - 8,8 5 1.005,4
06:58 17,7 16,7 17,3 94,0 4,6 209 - 8,8 5 1.005,4
06:57 17,6 16,6 17,3 94,0 4,6 209 - 8,8 5 1.005,3
06:56 17,6 16,6 17,3 94,0 4,6 189 - 8,8 0 1.005,3
06:55 17,6 16,6 17,3 94,0 4,3 207 - 8,8 0 1.005,3
06:54 17,7 16,7 17,3 94,0 4,3 181 - 8,8 0 1.005,3
06:53 17,6 16,6 17,3 94,0 4,6 181 - 8,8 0 1.005,2
06:52 17,7 16,7 17,3 94,0 4,7 193 - 8,8 0 1.005,2
06:51 17,6 16,6 17,3 94,0 4,8 224 - 8,8 0 1.005,3
06:50 17,7 16,7 17,3 94,0 4,7 226 - 8,8 0 1.005,3
06:49 17,6 16,6 17,3 94,0 4,7 184 - 8,8 0 1.005,2
06:48 17,7 16,7 17,3 94,0 4,9 197 - 8,8 0 1.005,2
06:47 17,6 16,6 17,3 94,0 5,0 218 - 8,8 0 1.005,2
06:46 17,6 16,6 17,3 94,0 4,6 185 - 8,8 0 1.005,2
06:45 17,7 16,7 17,3 94,0 4,9 138 - 8,8 0 1.005,2
06:44 17,6 16,6 17,3 94,0 4,9 201 10,3 8,8 0 1.005,1
06:43 17,7 16,7 17,3 94,0 5,2 205 - 8,8 0 1.005,2
06:42 17,6 16,6 17,3 94,0 5,1 207 - 8,8 0 1.005,1
06:41 17,6 16,6 17,3 94,0 5,2 226 - 8,8 0 1.005,1
06:40 17,6 16,6 17,3 94,0 5,3 199 - 8,8 0 1.005,1
06:39 17,6 16,6 17,3 94,0 5,2 213 - 8,8 0 1.005,1
06:38 17,7 16,7 17,3 94,0 5,5 223 - 8,6 0 1.005,0
06:37 17,6 16,6 17,3 94,0 5,0 204 - 8,6 0 1.005,1
06:36 17,6 16,6 17,3 94,0 4,9 163 - 8,6 0 1.005,1
06:35 17,6 16,6 17,3 94,0 4,7 190 - 8,6 0 1.005,0
06:34 17,6 16,6 17,3 94,0 5,2 205 - 8,6 0 1.005,0
06:33 17,6 16,6 17,3 94,0 5,4 221 - 8,6 0 1.005,0
06:32 17,6 16,6 17,3 94,0 5,4 228 - 8,6 0 1.005,0
06:31 17,6 16,5 17,2 93,1 5,0 212 - 8,6 0 1.005,0
06:30 17,6 16,4 17,2 93,0 5,1 186 9,4 8,6 0 1.005,0
06:29 17,6 16,4 17,2 93,0 5,0 170 - 8,6 0 1.005,0
06:28 17,6 16,4 17,2 93,0 4,3 218 - 8,6 0 1.005,0
06:27 17,6 16,4 17,2 93,0 4,1 172 - 8,6 0 1.005,0
06:26 17,6 16,4 17,2 93,0 4,5 221 - 8,6 0 1.005,0
06:25 17,6 16,4 17,2 93,0 4,6 208 - 8,6 0 1.005,0
06:24 17,6 16,4 17,2 93,0 4,5 258 - 8,6 0 1.005,0
06:23 17,6 16,4 17,2 93,0 4,6 213 - 8,6 0 1.005,0
06:22 17,6 16,4 17,2 93,0 5,3 188 - 8,6 0 1.005,0
06:21 17,6 16,4 17,2 93,0 5,4 186 - 8,6 0 1.005,0
06:20 17,6 16,4 17,2 93,0 5,4 195 - 8,6 0 1.005,0
06:19 17,6 16,4 17,2 93,0 5,9 198 - 8,6 0 1.004,9
06:18 17,6 16,4 17,2 93,0 6,2 207 - 8,6 0 1.005,0
06:17 17,6 16,4 17,2 93,0 5,4 209 - 8,6 0 1.005,0
06:16 17,6 16,4 17,2 93,0 4,9 163 - 8,6 0 1.005,0
06:15 17,6 16,4 17,2 93,0 5,1 206 - 8,6 0 1.005,0
06:14 17,6 16,4 17,2 93,0 5,4 184 - 8,6 0 1.005,0
06:13 17,6 16,4 17,2 93,0 5,4 208 - 8,6 0 1.004,9
06:12 17,6 16,4 17,2 93,0 5,7 228 - 8,6 0 1.004,9
06:11 17,6 16,4 17,2 93,0 5,9 211 - 8,6 0 1.004,8
06:10 17,6 16,4 17,2 93,0 5,8 198 9,4 8,6 0 1.004,9
06:09 17,6 16,4 17,2 93,0 5,3 219 - 8,6 0 1.004,9
06:08 17,6 16,4 17,2 93,0 4,9 199 - 8,6 0 1.004,9
06:07 17,6 16,4 17,2 93,0 5,1 234 - 8,6 0 1.004,8
06:06 17,6 16,4 17,2 93,0 5,5 201 - 8,6 0 1.004,8
06:05 17,6 16,4 17,2 93,0 5,5 222 - 8,6 0 1.004,8
06:04 17,6 16,5 17,2 93,0 5,6 224 - 8,6 0 1.004,8
06:03 17,6 16,4 17,2 93,0 5,4 212 - 8,6 0 1.004,8
06:02 17,6 16,4 17,2 93,0 5,8 186 - 8,6 0 1.004,8
06:01 17,6 16,4 17,2 93,0 6,0 188 10,3 8,6 0 1.004,8
06:00 17,6 16,5 17,2 93,0 6,2 176 - 8,6 0 1.004,8
 
05:59 17,6 16,4 17,2 93,0 5,8 184 - 8,6 0 1.004,8
05:58 17,6 16,5 17,2 93,0 5,4 159 - 8,6 0 1.004,7
05:57 17,6 16,5 17,2 93,0 4,9 214 - 8,6 0 1.004,7
05:56 17,6 16,5 17,2 93,0 4,8 208 - 8,6 0 1.004,7
05:55 17,6 16,5 17,2 93,0 4,6 234 - 8,6 0 1.004,7
05:54 17,6 16,5 17,2 93,0 4,8 192 - 8,6 0 1.004,7
05:53 17,6 16,5 17,2 93,0 5,1 182 - 8,6 0 1.004,7
05:52 17,6 16,5 17,3 93,0 5,2 225 10,3 8,6 0 1.004,7
05:51 17,6 16,5 17,2 93,0 5,7 184 9,4 8,6 0 1.004,6
05:50 17,7 16,5 17,3 93,0 6,0 198 9,4 8,6 0 1.004,6
05:49 17,7 16,5 17,3 93,0 5,9 207 9,4 8,6 0 1.004,6
05:48 17,7 16,5 17,3 93,0 6,0 245 9,8 8,6 0 1.004,6
05:47 17,7 16,5 17,3 93,0 5,4 215 11,2 8,6 0 1.004,5
05:46 17,7 16,5 17,3 93,0 5,2 199 - 8,6 0 1.004,6
05:45 17,7 16,5 17,3 93,0 5,3 196 - 8,6 0 1.004,6
05:44 17,7 16,5 17,3 93,0 5,8 160 11,6 8,6 0 1.004,5
05:43 17,7 16,6 17,3 93,4 5,9 221 - 8,6 0 1.004,4
05:42 17,7 16,7 17,4 94,0 6,0 192 - 8,6 0 1.004,4
05:41 17,7 16,7 17,4 94,0 5,8 180 9,8 8,6 0 1.004,5
05:40 17,7 16,7 17,4 94,0 6,1 213 - 8,6 0 1.004,5
05:39 17,7 16,7 17,4 94,0 6,3 205 9,8 8,6 0 1.004,4
05:38 17,7 16,7 17,4 94,0 6,1 187 9,4 8,6 0 1.004,4
05:37 17,7 16,7 17,4 94,0 6,1 207 - 8,6 0 1.004,4
05:36 17,7 16,7 17,4 93,6 5,9 190 - 8,6 0 1.004,4
05:35 17,7 16,7 17,4 93,6 5,4 190 - 8,6 0 1.004,4
05:34 17,7 16,6 17,4 93,3 5,3 222 - 8,6 0 1.004,4
05:33 17,8 16,6 17,4 93,0 6,0 214 - 8,6 0 1.004,4
05:32 17,8 16,6 17,4 93,0 6,7 228 10,3 8,6 0 1.004,4
05:31 17,8 16,6 17,4 93,0 7,1 210 11,2 8,6 0 1.004,4
05:30 17,8 16,6 17,4 93,0 6,4 209 11,2 8,6 0 1.004,3
05:29 17,8 16,6 17,4 93,0 5,3 170 - 8,6 0 1.004,3
05:28 17,8 16,6 17,4 93,0 4,9 151 - 8,6 0 1.004,3
05:27 17,8 16,6 17,4 93,0 5,3 232 9,4 8,6 0 1.004,3
05:26 17,8 16,7 17,4 93,0 5,9 229 - 8,6 0 1.004,3
05:25 17,8 16,7 17,4 93,0 5,3 198 - 8,6 0 1.004,3
05:24 17,8 16,7 17,4 93,0 5,4 222 - 8,6 0 1.004,2
05:23 17,8 16,7 17,4 93,0 5,7 234 - 8,6 0 1.004,2
05:22 17,8 16,7 17,5 93,0 6,0 205 - 8,6 0 1.004,2
05:21 17,9 16,7 17,5 93,0 6,0 219 - 8,6 0 1.004,2
05:20 17,9 16,7 17,5 93,0 5,5 214 - 8,6 0 1.004,2
05:19 17,9 16,7 17,5 93,0 5,1 226 - 8,4 0 1.004,2
05:18 17,9 16,7 17,5 93,0 4,8 197 - 8,4 0 1.004,1
05:17 17,9 16,7 17,5 93,0 4,8 234 - 8,4 0 1.004,1
05:16 17,9 16,7 17,5 93,0 5,0 219 - 8,2 0 1.004,2
05:15 17,9 16,8 17,5 93,0 5,4 234 - 8,2 0 1.004,3
05:14 17,9 16,8 17,6 93,0 5,8 192 10,7 8,0 0 1.004,3
05:13 18,0 16,8 17,6 93,0 6,5 219 - 8,0 0 1.004,3
05:12 18,0 16,8 17,6 93,0 6,7 226 - 7,8 0 1.004,3
05:11 18,0 16,9 17,6 93,0 6,2 228 9,4 7,8 0 1.004,4
05:10 18,0 16,9 17,7 93,0 5,3 236 - 7,8 0 1.004,4
05:09 18,1 16,9 17,7 93,0 4,7 221 - 7,8 0 1.004,4
05:08 18,1 16,9 17,7 93,0 4,4 242 - 7,8 0 1.004,3
05:07 18,1 16,9 17,7 93,0 4,2 227 - 7,8 0 1.004,2
05:06 18,1 17,0 17,7 93,0 4,4 245 - 7,8 0 1.004,2
05:05 18,1 16,9 17,7 93,0 5,7 204 9,4 7,6 0 1.004,2
05:04 18,1 17,0 17,7 93,0 6,8 222 - 7,4 0 1.004,2
05:03 18,1 16,9 17,7 93,0 6,9 247 - 7,4 0 1.004,1
05:02 18,1 17,0 17,7 93,0 5,6 240 - 7,4 0 1.004,1
05:01 18,2 17,0 17,8 93,0 4,7 191 - 7,2 0 1.004,2
05:00 18,2 17,0 17,8 93,0 4,3 236 - 6,8 0 1.004,3
 
04:59 18,2 17,0 17,8 93,0 4,5 195 - 6,4 0 1.004,3
04:58 18,2 17,0 17,8 93,0 5,1 170 - 6,0 0 1.004,3
04:57 18,2 17,1 17,8 93,0 5,8 214 - 6,0 0 1.004,3
04:56 18,2 17,1 17,9 93,0 5,5 184 9,8 5,8 0 1.004,3
04:55 18,2 17,1 17,8 93,0 5,2 247 - 5,8 0 1.004,3
04:54 18,3 17,1 17,9 93,0 4,3 190 - 5,6 0 1.004,3
04:53 18,3 17,1 17,9 93,0 4,0 250 - 5,4 0 1.004,3
04:52 18,3 17,1 17,9 93,0 4,3 243 - 5,2 0 1.004,2
04:51 18,3 16,9 17,8 92,1 4,9 236 - 5,2 0 1.004,3
04:50 18,3 17,0 17,9 92,0 5,5 223 - 5,0 0 1.004,2
04:49 18,3 17,0 17,9 92,0 5,6 209 - 5,0 0 1.004,2
04:48 18,3 17,0 17,9 92,0 4,8 205 - 4,8 0 1.004,2
04:47 18,4 17,0 17,9 92,0 4,3 248 - 4,4 0 1.004,2
04:46 18,4 17,0 17,9 92,0 4,3 213 - 4,0 0 1.004,2
04:45 18,4 17,0 17,9 92,0 4,4 224 - 3,8 0 1.004,2
04:44 18,4 17,1 18,0 92,0 4,2 197 - 3,8 0 1.004,2
04:43 18,4 17,1 18,0 92,0 4,0 219 - 3,8 0 1.004,2
04:42 18,4 17,1 18,0 92,0 3,9 216 - 3,8 0 1.004,2
04:41 18,4 17,1 18,0 92,0 4,1 213 - 3,8 0 1.004,2
04:40 18,4 17,1 18,0 92,0 4,5 222 - 3,6 0 1.004,2
04:39 18,4 17,1 18,0 92,0 5,2 213 - 3,2 0 1.004,1
04:38 18,4 17,1 18,0 92,0 5,4 232 - 3,2 0 1.004,1
04:37 18,4 17,1 18,0 92,0 5,1 213 - 3,0 0 1.004,1
04:36 18,4 17,1 18,0 92,0 4,9 190 - 2,8 0 1.004,1
04:35 18,4 17,0 17,9 92,0 5,0 213 - 2,8 0 1.004,1
04:34 18,4 17,0 17,9 92,0 5,1 222 - 2,8 0 1.004,1
04:33 18,4 17,0 17,9 92,0 5,5 190 - 2,8 0 1.004,1
04:32 18,4 17,0 17,9 92,0 5,4 205 - 2,8 0 1.004,2
04:31 18,4 17,0 17,9 92,0 5,3 195 - 2,8 0 1.004,1
04:30 18,3 17,0 17,9 92,0 5,2 221 - 2,8 0 1.004,1
04:29 18,4 17,0 17,9 92,0 5,3 193 - 2,8 0 1.004,1
04:28 18,3 17,0 17,9 92,0 5,2 217 - 2,8 0 1.004,1
04:27 18,3 17,0 17,9 92,0 5,6 222 - 2,8 0 1.004,1
04:26 18,3 17,0 17,9 92,0 5,8 219 - 2,8 0 1.004,0
04:25 18,3 17,0 17,9 92,0 5,6 199 - 2,8 0 1.004,1
04:24 18,3 17,0 17,9 92,0 5,2 205 - 2,8 0 1.004,1
04:23 18,3 17,0 17,9 92,0 5,1 206 - 2,8 0 1.004,1
04:22 18,3 17,0 17,9 92,0 5,3 209 - 2,8 0 1.004,1
04:21 18,3 17,0 17,9 92,0 5,2 188 9,4 2,8 0 1.004,1
04:20 18,3 17,0 17,9 92,0 4,8 180 - 2,8 0 1.004,1
04:19 18,3 17,0 17,9 92,0 3,9 206 - 2,8 0 1.004,1
04:18 18,3 17,0 17,9 92,0 4,1 240 - 2,8 0 1.004,1
04:17 18,3 17,0 17,9 92,0 4,2 194 - 2,8 0 1.004,1
04:16 18,3 16,9 17,9 91,9 4,4 236 - 2,8 0 1.004,1
04:15 18,3 16,8 17,8 91,0 4,8 209 - 2,8 0 1.004,1
04:14 18,3 16,8 17,8 91,4 4,9 188 - 2,8 0 1.004,1
04:13 18,3 16,9 17,8 92,0 4,8 196 - 2,8 0 1.004,0
04:12 18,3 16,8 17,8 91,3 4,7 205 - 2,8 0 1.004,0
04:11 18,3 16,8 17,8 91,0 4,8 234 - 2,8 0 1.004,0
04:10 18,3 16,8 17,8 91,0 4,6 223 - 2,8 0 1.004,0
04:09 18,3 16,8 17,8 91,0 4,8 193 - 2,8 0 1.004,0
04:08 18,3 16,7 17,7 91,0 4,8 219 - 2,8 0 1.004,0
04:07 18,3 16,8 17,8 91,0 4,8 220 - 2,8 0 1.004,0
04:06 18,3 16,8 17,8 91,0 4,9 217 - 2,8 0 1.003,9
04:05 18,2 16,7 17,7 91,0 5,3 193 - 2,8 0 1.003,9
04:04 18,2 16,7 17,7 91,2 5,4 234 - 2,8 0 1.003,9
04:03 18,2 16,9 17,8 92,0 5,3 209 - 2,8 0 1.003,9
04:02 18,2 16,8 17,8 91,6 5,2 220 - 2,8 0 1.003,9
04:01 18,2 16,8 17,8 91,6 5,2 229 - 2,8 0 1.003,9
04:00 18,2 16,9 17,8 92,0 4,6 224 - 2,8 0 1.003,8
 
03:59 18,2 16,9 17,8 92,0 4,6 288 - 2,8 0 1.003,9
03:58 18,2 16,9 17,8 92,0 5,0 226 - 2,8 0 1.003,8
03:57 18,2 16,9 17,8 92,0 6,0 227 - 2,8 0 1.003,9
03:56 18,2 16,9 17,8 92,0 6,0 209 9,4 2,8 0 1.003,8
03:55 18,2 16,9 17,8 92,0 5,6 235 - 2,8 0 1.003,8
03:54 18,3 16,9 17,8 92,0 5,6 182 - 2,8 0 1.003,8
03:53 18,2 16,9 17,8 92,0 6,3 226 10,3 2,8 0 1.003,7
03:52 18,2 16,9 17,8 92,0 6,7 226 9,8 2,8 0 1.003,7
03:51 18,2 16,9 17,8 92,0 6,7 228 10,7 2,8 0 1.003,8
03:50 18,2 16,9 17,8 92,0 6,4 238 9,8 2,8 0 1.003,8
03:49 18,2 16,8 17,7 92,0 6,1 209 - 2,8 0 1.003,7
03:48 18,2 16,8 17,7 92,0 6,7 232 - 2,8 0 1.003,7
03:47 18,1 16,8 17,7 92,0 7,2 233 12,1 2,8 0 1.003,7
03:46 18,1 16,7 17,6 92,0 6,7 237 - 2,8 0 1.003,8
03:45 18,1 16,7 17,6 92,0 5,9 211 - 2,8 0 1.003,7
03:44 18,1 16,7 17,6 92,0 6,2 202 - 2,8 0 1.003,7
03:43 18,0 16,7 17,6 92,0 6,3 238 11,2 2,8 0 1.003,7
03:42 18,1 16,7 17,6 92,0 5,9 195 - 2,8 0 1.003,7
03:41 18,1 16,7 17,6 92,0 5,3 208 - 2,8 0 1.003,7
03:40 18,1 16,7 17,6 92,0 5,0 183 - 2,8 0 1.003,7
03:39 18,1 16,7 17,6 92,0 5,5 211 - 2,8 0 1.003,6
03:38 18,0 16,7 17,6 92,0 5,4 205 - 2,8 0 1.003,7
03:37 18,1 16,8 17,6 92,7 5,2 237 - 2,8 0 1.003,7
03:36 18,1 16,9 17,7 93,0 5,2 225 - 2,8 0 1.003,7
03:35 18,1 16,9 17,7 93,0 5,2 192 - 2,8 0 1.003,7
03:34 18,1 16,9 17,7 93,0 4,7 209 - 2,8 0 1.003,7
03:33 18,0 16,9 17,7 93,0 5,2 238 - 2,8 0 1.003,7
03:32 18,1 16,9 17,7 93,0 5,2 240 9,8 2,8 0 1.003,7
03:31 18,1 16,9 17,7 93,0 5,3 184 - 2,8 0 1.003,7
03:30 18,1 16,9 17,7 93,0 5,7 206 - 2,8 0 1.003,7
03:29 18,1 16,9 17,7 93,0 6,1 220 - 2,8 0 1.003,7
03:28 18,0 16,9 17,7 93,0 6,0 236 - 2,8 0 1.003,7
03:27 18,1 16,9 17,7 93,0 5,5 213 - 2,8 0 1.003,7
03:26 18,1 16,9 17,7 93,0 5,4 190 - 2,8 0 1.003,6
03:25 18,0 16,9 17,6 93,0 5,4 239 - 2,8 0 1.003,7
03:24 18,0 16,8 17,6 93,0 5,6 200 9,4 2,8 0 1.003,7
03:23 18,0 16,9 17,6 93,0 6,0 209 - 2,8 0 1.003,6
03:22 18,0 16,9 17,6 93,0 6,0 207 9,4 2,8 0 1.003,5
03:21 18,0 16,9 17,6 93,0 5,9 224 - 2,8 0 1.003,5
03:20 18,0 16,9 17,6 93,0 6,0 211 - 2,8 0 1.003,5
03:19 18,0 16,9 17,6 93,0 6,1 227 - 2,8 0 1.003,5
03:18 18,0 16,9 17,6 93,0 5,4 212 - 2,8 0 1.003,5
03:17 18,0 16,9 17,6 93,0 5,0 265 - 2,8 0 1.003,5
03:16 18,0 16,8 17,6 93,0 5,0 198 - 2,8 0 1.003,5
03:15 18,0 16,8 17,6 93,0 5,9 195 - 2,8 0 1.003,4
03:14 18,0 16,8 17,6 93,0 6,4 226 9,8 2,8 0 1.003,4
03:13 18,0 16,8 17,6 93,0 7,1 215 10,7 2,8 0 1.003,4
03:12 18,0 16,8 17,6 93,0 7,5 210 10,7 2,8 0 1.003,4
03:11 18,0 16,8 17,6 93,0 7,7 216 11,2 2,8 0 1.003,5
03:10 18,0 16,8 17,6 93,0 7,5 228 10,7 2,8 0 1.003,4
03:09 17,9 16,8 17,6 93,0 7,2 210 10,3 2,8 0 1.003,4
03:08 17,9 16,8 17,6 93,0 6,7 227 10,3 2,8 0 1.003,4
03:07 17,9 16,8 17,5 93,0 6,2 200 - 2,8 0 1.003,4
03:06 17,9 16,7 17,5 93,0 6,4 182 - 2,8 0 1.003,4
03:05 17,9 16,7 17,5 93,0 6,5 202 - 2,8 0 1.003,4
03:04 17,9 16,7 17,5 93,0 6,6 207 - 2,8 0 1.003,4
03:03 17,9 16,7 17,5 93,0 7,3 203 - 2,8 0 1.003,3
03:02 17,9 16,7 17,5 93,0 6,1 192 - 2,8 0 1.003,3
03:01 17,9 16,7 17,5 93,0 6,7 253 - 2,8 0 1.003,3
03:00 17,9 16,7 17,5 93,0 6,8 350 10,7 2,8 0 1.003,3
 
02:59 17,8 16,7 17,5 93,0 8,3 215 - 2,8 0 1.003,2
02:58 17,8 16,7 17,4 93,0 7,3 165 10,7 2,8 0 1.003,3
02:57 17,8 16,7 17,4 93,0 6,3 228 - 2,8 0 1.003,3
02:56 17,8 16,7 17,4 93,0 6,2 236 9,8 2,8 0 1.003,2
02:55 17,8 16,6 17,4 93,0 6,5 234 11,2 2,8 0 1.003,3
02:54 17,8 16,6 17,4 93,0 5,4 194 - 2,8 0 1.003,3
02:53 17,8 16,6 17,4 93,0 5,5 231 - 2,8 0 1.003,3
02:52 17,8 16,6 17,4 93,0 6,9 228 - 2,8 0 1.003,3
02:51 17,8 16,6 17,4 93,0 7,3 203 - 2,8 0 1.003,3
02:50 17,8 16,6 17,4 93,0 5,3 188 - 2,8 0 1.003,2